GFSSW_sfc_temp_000.txt.gz
Temp
62 62 62 61 61 61 61 61 60 60 60 60 60 59 59 58 57 54 51 65 61 67 69 66 66 65 62 58 59 56 49 48 54 56 60 69 65 66 67 65 65 65 63 65 66
62 62 63 62 61 60 60 60 59 59 60 60 59 59 58 58 53 51 64 66 65 67 67 65 62 64 57 57 58 54 49 53 60 61 65 71 65 66 64 61 60 59 64 65 66
62 62 62 62 61 60 60 59 59 60 60 60 59 58 58 57 52 62 69 67 67 69 69 69 68 65 56 56 55 52 53 59 64 66 68 64 63 63 62 55 60 60 60 62 62
61 61 61 60 60 60 59 58 59 60 60 59 59 58 57 54 52 67 69 67 67 69 70 67 65 58 55 55 59 54 61 63 62 66 64 63 62 62 59 64 67 66 65 63 62
60 60 60 60 60 59 58 58 60 59 59 59 58 57 52 52 58 70 67 67 67 69 67 66 62 62 58 61 62 57 61 63 62 64 61 64 60 62 56 62 66 66 65 64 64
59 59 59 59 58 59 59 58 59 59 58 58 57 57 48 52 73 72 68 68 69 68 66 67 66 67 64 61 60 63 58 57 60 59 59 61 56 57 57 60 63 64 64 63 65
58 58 58 58 58 58 59 58 58 58 57 56 56 55 51 60 73 70 72 69 69 69 67 68 70 66 63 59 64 61 58 59 60 57 57 61 54 51 55 61 61 63 62 62 64
58 58 57 57 57 58 58 58 57 57 56 56 56 54 53 73 71 72 69 72 74 71 71 73 71 66 65 63 60 56 53 48 56 57 56 57 47 55 57 59 56 58 60 59 58
58 57 57 56 58 57 57 57 56 56 56 55 50 49 58 74 71 74 74 72 73 72 70 76 71 62 61 54 50 50 44 46 51 56 56 55 46 51 54 57 54 53 55 56 55
57 57 57 56 56 56 56 55 55 55 55 56 55 51 64 65 71 73 74 73 69 69 68 65 59 56 54 52 43 45 45 40 48 49 50 47 44 49 51 53 49 49 50 51 52
57 57 56 56 56 55 53 51 48 48 49 56 58 60 63 70 70 69 71 70 68 65 55 58 53 47 48 52 54 52 49 46 46 52 49 44 44 47 49 49 48 48 49 50 52
56 56 56 56 55 54 53 49 60 62 53 59 61 63 67 67 63 66 70 63 61 54 55 54 48 53 56 55 54 52 47 44 48 52 49 47 45 47 50 48 48 49 49 51 52
55 56 56 55 55 53 49 56 65 62 53 60 63 64 66 69 62 62 66 62 57 54 54 50 52 58 55 53 52 49 47 46 46 51 50 47 44 46 51 51 52 51 51 52 52
55 55 55 54 51 51 52 63 63 61 46 54 59 65 67 66 61 67 67 64 58 52 53 52 55 55 53 52 51 46 51 50 47 45 40 45 33 42 45 46 49 49 49 50 52
54 55 54 56 51 54 64 63 61 60 29 55 60 72 65 63 62 62 65 64 54 54 54 49 51 52 52 50 53 49 54 50 47 44 42 42 37 38 45 44 47 48 50 49 49
54 55 54 53 50 57 61 59 60 40 32 52 60 58 58 60 59 61 62 64 60 55 54 51 55 54 51 54 54 55 51 48 44 42 33 40 38 36 40 45 47 49 51 51 51
54 55 54 58 58 60 58 56 40 31 53 50 52 56 55 53 55 55 53 51 49 45 44 51 51 53 54 50 52 50 45 34 34 29 30 42 39 41 48 49 51 50 50 50 48
54 53 53 55 57 57 57 49 35 47 48 54 54 54 51 53 52 52 50 47 51 49 43 42 38 49 55 49 47 45 44 34 30 25 33 42 35 42 50 53 53 53 51 49 49
53 52 51 58 56 56 52 33 39 46 53 53 53 49 47 52 52 50 45 46 47 48 45 41 42 52 53 53 51 45 39 45 34 32 30 33 40 46 47 48 50 51 50 47 46
52 52 55 58 57 56 44 40 47 54 55 54 47 50 45 47 48 46 45 49 49 50 51 48 41 48 53 54 53 48 50 38 33 28 25 31 34 36 42 46 48 46 46 45 46
53 52 57 57 57 51 37 42 51 58 58 54 50 48 49 48 47 45 46 49 50 51 51 47 44 44 49 46 43 46 42 39 38 31 25 21 31 42 46 48 46 45 45 45 44
50 47 57 57 48 40 43 50 53 56 57 55 55 52 49 48 46 45 46 47 50 50 47 46 41 32 42 49 49 46 43 41 29 32 26 24 31 43 43 47 46 44 44 43 45
49 49 56 56 37 31 46 52 55 54 54 53 52 53 51 47 43 45 46 50 51 49 48 48 38 31 39 45 47 43 44 41 37 32 31 23 31 44 43 42 44 41 42 43 44
50 43 48 47 45 47 47 48 50 55 54 55 53 54 49 46 47 44 45 49 50 49 49 49 41 38 33 37 40 39 42 41 40 28 30 30 35 39 39 40 40 41 42 42 43
48 45 48 37 41 46 49 49 49 48 54 55 52 52 49 42 42 41 45 46 50 49 46 46 38 37 37 39 40 40 41 41 40 38 35 37 37 42 41 40 41 42 42 42 42
48 46 45 43 47 48 44 49 50 50 51 50 51 49 49 44 48 44 46 44 45 46 42 41 33 33 34 38 37 37 41 40 39 40 39 37 38 42 42 41 41 42 42 41 42
49 50 50 39 41 43 41 50 52 53 50 52 52 48 44 47 47 46 46 45 46 45 37 35 30 31 29 32 32 30 38 40 39 40 40 34 42 40 39 41 42 40 42 42 43

GFSSW_sfc_temp_006.txt.gz
Temp
62 62 62 62 61 61 61 61 60 60 60 60 60 60 59 59 58 66 63 75 73 67 67 81 82 82 82 80 81 81 72 70 70 71 70 78 74 81 82 76 78 79 78 80 79
62 62 62 61 61 60 60 60 60 60 60 60 60 59 58 58 61 65 74 67 66 66 83 81 78 80 78 78 79 76 72 72 80 79 77 79 79 78 76 75 75 76 79 80 80
61 61 61 61 60 60 60 60 59 60 60 60 59 59 58 59 62 77 69 67 66 70 88 86 84 79 75 78 76 76 72 77 76 79 83 80 80 83 78 73 78 73 75 74 75
61 61 61 60 60 59 59 59 59 59 60 59 59 59 58 61 65 86 68 66 66 80 84 82 80 74 73 71 79 71 76 75 75 78 79 78 81 78 80 80 83 80 77 75 73
59 59 60 60 59 59 59 58 59 59 59 59 59 58 61 64 72 83 67 68 78 82 81 80 77 76 71 75 75 72 75 74 76 79 81 80 77 78 76 81 83 80 77 76 76
59 59 59 59 59 59 58 58 58 58 58 57 58 57 59 64 86 85 80 76 81 82 82 82 79 81 77 75 75 76 74 73 74 77 76 77 75 79 75 79 79 77 77 78 77
59 59 58 58 58 58 58 58 57 57 57 57 57 59 58 71 86 86 82 82 86 84 81 84 83 78 78 72 77 77 71 74 75 77 74 80 72 68 72 75 76 77 79 79 80
60 58 57 57 57 57 57 57 56 57 57 57 57 57 64 82 87 82 85 82 84 86 84 82 83 79 75 77 75 72 74 66 71 76 73 75 66 70 73 77 77 77 77 77 78
59 58 57 56 56 57 57 56 56 57 57 57 57 57 70 78 80 87 85 83 81 81 79 80 79 75 74 72 68 69 63 65 66 73 74 75 68 70 73 76 75 76 76 75 74
58 57 57 56 56 56 56 56 56 56 57 59 60 56 75 77 83 83 89 86 80 76 73 75 75 72 72 70 59 62 63 67 66 69 74 71 67 69 71 74 74 76 75 75 75
58 57 56 56 56 55 56 59 58 57 55 69 70 69 75 83 83 84 86 84 82 77 70 73 68 66 70 72 71 70 68 66 68 68 68 66 66 67 69 71 71 73 74 74 73
57 56 56 56 55 55 59 62 70 70 67 69 69 69 76 78 74 81 86 78 75 70 72 68 64 68 70 70 70 69 67 65 64 66 68 67 64 66 68 67 71 72 73 72 70
56 56 56 55 55 55 57 63 74 74 66 68 71 73 76 77 75 77 82 77 72 70 69 68 66 69 70 69 67 66 66 63 65 65 68 68 63 64 64 66 67 70 72 72 72
56 55 55 54 54 63 61 71 74 70 63 65 70 75 77 78 71 79 80 78 70 67 70 67 68 68 69 66 65 63 66 66 63 63 59 66 57 61 64 63 65 66 69 70 71
55 55 54 55 64 63 71 74 73 69 44 68 71 83 77 73 74 74 78 77 69 67 67 62 66 66 66 64 66 62 68 66 65 65 62 62 60 61 64 61 63 65 68 69 71
55 54 54 55 58 65 70 72 71 56 44 62 72 70 70 70 70 74 74 77 74 68 70 66 70 70 67 66 67 67 66 65 65 63 52 61 59 62 61 65 65 66 67 68 70
54 54 54 64 66 68 68 70 56 48 63 61 64 69 68 65 66 68 68 67 66 59 60 65 65 68 70 65 67 67 64 53 50 50 49 57 56 63 69 69 69 66 68 69 70
54 54 55 63 70 64 68 64 49 58 60 66 66 67 64 66 64 65 65 63 65 66 63 59 53 65 67 66 64 64 64 54 41 44 53 56 53 66 67 72 73 72 71 70 70
53 54 54 62 63 62 65 51 55 60 66 63 65 61 61 63 65 64 63 63 64 66 61 58 56 66 65 67 67 60 57 63 51 48 49 57 61 66 66 67 70 70 70 69 70
56 54 63 68 66 64 60 54 61 65 65 66 59 63 58 61 62 63 62 63 62 65 67 62 54 62 63 67 65 64 65 54 56 41 41 54 54 59 60 62 67 68 67 69 71
62 60 66 69 67 65 56 60 63 67 67 64 63 60 63 60 63 62 62 62 64 64 68 66 62 57 61 61 62 59 59 57 58 52 46 45 56 65 64 66 65 67 69 70 69
63 57 65 67 61 65 60 64 58 66 66 66 67 65 63 63 61 61 60 63 64 67 62 64 61 52 58 63 64 64 61 61 52 47 48 46 54 63 63 65 69 69 69 71 70
61 64 66 65 55 53 60 64 65 65 66 65 64 66 65 62 57 60 61 60 62 64 63 63 58 49 52 58 62 60 61 60 56 52 47 43 54 63 63 62 66 68 70 68 67
65 55 61 65 67 63 60 61 62 65 65 66 63 65 63 59 60 57 58 59 61 62 49 59 58 56 50 55 60 54 58 60 60 50 52 52 59 63 64 64 65 65 68 66 64
65 62 67 52 58 64 65 64 62 60 66 67 63 65 63 55 57 56 59 58 59 52 59 62 54 55 54 54 55 57 58 57 57 58 51 58 58 65 67 68 69 66 64 63 61
61 61 62 63 62 62 57 61 63 63 64 63 64 64 64 59 62 57 60 60 60 59 60 57 52 50 48 52 53 52 58 59 59 60 57 60 58 70 69 66 65 62 61 60 60
66 66 69 48 60 60 59 62 63 66 61 64 67 64 60 61 63 65 63 63 63 60 56 54 48 48 47 47 48 41 52 58 59 62 59 54 63 65 62 62 64 63 61 60 61

GFSSW_sfc_temp_009.txt.gz
Temp
63 63 63 62 62 61 61 61 60 61 61 61 61 60 60 60 59 68 68 78 78 70 65 87 85 85 88 85 88 87 74 71 75 72 69 84 80 85 87 80 80 74 83 82 83
62 62 63 62 61 60 60 60 60 60 60 60 60 60 59 59 63 69 78 69 70 68 81 83 80 84 81 82 82 78 72 76 80 79 73 77 81 76 80 76 76 76 84 84 83
62 62 62 61 61 60 60 59 59 60 60 60 60 60 59 61 67 82 70 67 68 70 90 90 88 84 78 82 80 79 72 79 75 84 83 80 80 85 71 74 81 78 78 80 81
61 61 61 61 61 60 59 58 59 60 60 60 59 60 59 65 65 87 71 67 68 82 87 87 85 78 76 75 81 74 80 81 82 83 82 79 85 75 63 60 73 85 83 84 80
60 61 60 60 60 59 58 58 58 59 60 59 59 59 63 67 76 82 66 68 79 81 83 83 80 80 74 78 79 76 79 80 80 82 83 84 80 80 80 84 86 84 82 82 81
59 60 59 59 59 59 58 58 58 58 59 58 59 58 65 65 92 92 87 83 86 86 85 86 83 85 79 78 77 80 79 77 81 80 82 79 80 81 79 85 82 81 82 82 82
59 60 58 58 58 58 58 58 58 58 58 58 58 65 65 73 93 94 88 86 90 89 85 88 89 81 81 76 82 79 73 74 77 80 79 83 74 74 80 83 79 81 82 82 82
59 59 58 58 57 57 58 57 57 57 58 58 58 66 67 91 94 91 92 87 90 92 89 88 88 82 78 82 78 74 75 67 75 80 80 80 67 76 83 81 79 80 81 82 82
58 59 58 57 56 56 57 57 57 57 58 58 61 65 72 79 83 92 93 84 87 87 87 85 82 76 78 71 70 72 62 66 69 81 79 78 70 77 83 82 79 80 81 81 81
58 58 57 57 56 56 56 57 57 56 60 65 69 61 78 81 88 90 93 89 83 81 77 77 77 70 72 70 57 62 66 68 68 75 78 74 72 76 81 81 79 81 80 79 79
58 58 57 56 56 55 57 65 63 62 65 71 75 76 81 88 90 89 91 88 84 80 70 74 69 65 69 72 73 72 69 68 73 76 74 72 73 75 79 80 79 80 80 79 80
58 58 57 56 56 55 61 67 75 74 68 76 76 78 82 85 76 85 91 81 77 71 74 70 63 71 76 76 73 72 68 68 72 74 73 73 71 76 77 78 80 79 80 80 80
57 57 56 56 55 56 64 70 82 78 68 74 78 77 81 83 78 82 87 83 76 70 71 68 70 74 73 71 70 71 68 66 67 72 75 73 68 70 74 76 78 80 82 82 79
57 56 55 54 55 69 67 78 79 76 63 67 72 79 82 83 75 85 87 82 76 70 71 68 74 73 72 70 71 64 73 71 68 66 60 74 55 67 70 71 72 75 77 78 78
56 55 54 55 67 69 77 81 80 71 45 72 75 88 84 77 78 78 86 82 72 72 73 68 70 71 69 69 72 62 73 71 70 67 66 66 62 49 70 68 70 73 75 76 78
55 55 54 56 63 71 77 76 73 55 46 65 75 73 73 76 76 80 80 83 81 73 75 71 78 75 73 72 73 73 70 70 70 67 54 64 61 58 67 71 72 73 74 75 76
55 55 55 67 69 75 73 71 55 48 69 64 67 73 71 69 71 73 71 70 67 58 62 69 70 73 75 69 73 72 66 55 53 52 50 66 62 65 73 76 76 73 73 74 76
54 54 55 68 75 71 70 62 49 62 64 72 71 71 66 71 70 70 70 67 74 72 64 60 56 70 74 72 68 67 67 55 44 47 55 64 56 67 77 79 80 78 76 75 74
53 56 56 62 66 68 66 50 56 65 72 67 69 64 65 69 69 69 68 69 73 74 62 61 59 71 71 73 73 67 60 70 58 57 52 60 67 74 73 74 76 75 74 73 74
61 55 63 67 66 64 61 54 65 72 73 72 61 67 61 65 64 66 66 72 69 73 75 68 58 68 68 72 71 68 72 57 59 44 43 56 59 62 66 68 72 73 73 73 74
64 60 74 71 67 63 55 60 69 74 74 69 66 65 67 65 67 65 67 70 72 71 75 72 65 62 66 64 66 64 62 63 63 58 47 46 57 70 69 71 71 74 74 74 74
62 56 68 71 60 63 60 67 66 72 73 71 71 70 67 68 65 66 65 69 74 74 67 72 66 55 62 69 71 70 66 65 52 51 54 50 55 71 71 73 74 74 76 76 76
60 63 65 67 54 56 67 69 71 70 70 69 68 72 73 67 62 67 68 66 68 70 68 69 62 52 56 63 68 64 67 67 65 57 52 45 55 73 71 70 74 74 76 75 76
65 56 58 58 69 65 63 65 64 72 71 73 72 73 69 66 69 64 65 64 67 70 53 62 65 59 51 59 66 59 64 66 63 52 53 56 61 68 70 70 72 73 76 77 75
67 63 67 52 62 66 67 67 65 64 71 73 69 69 67 61 64 63 67 63 64 54 64 66 57 62 64 63 63 64 64 65 62 62 55 60 64 69 72 73 74 75 74 75 74
63 66 70 65 66 65 60 65 66 68 69 66 67 70 71 65 65 63 66 65 63 65 65 65 57 57 53 62 61 59 64 65 65 65 65 66 64 75 75 75 73 73 72 71 71
70 69 71 57 64 63 64 66 68 71 67 73 72 69 67 68 70 71 72 71 71 65 62 60 54 51 49 54 54 44 54 62 65 68 66 58 67 72 69 69 70 72 71 70 70

GFSSW_sfc_temp_012.txt.gz
Temp
62 62 63 63 62 62 61 60 60 60 61 61 61 61 60 60 59 66 64 73 76 71 68 82 80 82 84 81 84 85 68 65 70 73 65 64 62 72 77 80 79 78 69 73 77
62 62 63 63 61 61 61 60 59 60 60 61 61 60 60 59 61 65 76 72 70 69 77 78 77 80 76 78 80 75 67 69 73 73 67 64 58 65 78 70 72 74 63 68 77
62 62 62 62 62 61 61 59 59 59 60 60 60 60 59 60 65 80 71 70 69 71 81 86 85 81 74 79 78 76 68 77 66 65 67 70 65 80 74 64 62 59 71 77 75
61 61 61 61 62 61 60 59 59 59 60 60 60 60 59 62 63 85 70 69 68 80 80 81 82 76 72 72 80 71 77 78 70 69 68 74 78 68 68 62 61 64 77 77 75
60 60 61 61 61 60 59 59 59 59 60 60 60 59 61 66 72 82 68 70 80 82 80 81 78 77 71 76 78 73 77 80 81 78 79 77 75 69 68 70 73 70 82 78 77
60 59 60 60 60 59 59 58 58 59 59 59 60 58 60 63 93 88 83 80 84 82 82 84 81 83 78 77 75 78 78 78 80 81 78 72 71 76 74 78 78 80 80 79 80
60 59 59 59 59 58 58 58 58 59 59 59 59 62 64 70 93 93 88 85 88 84 82 86 87 81 81 75 82 79 72 74 77 79 77 69 69 72 79 80 77 78 79 80 82
60 59 59 58 58 57 57 58 59 58 59 59 59 64 63 90 92 90 91 88 89 90 87 89 87 81 77 79 77 71 72 62 72 76 79 78 64 75 79 77 76 78 78 79 80
59 59 59 58 57 57 57 58 58 58 59 59 60 64 68 81 84 91 92 85 89 88 88 88 82 76 75 67 65 68 60 61 65 76 77 75 67 75 81 79 76 77 77 78 78
59 59 58 57 57 57 57 57 58 57 58 68 70 62 73 79 89 91 94 89 83 82 77 76 74 69 68 66 54 58 60 64 64 73 75 72 69 75 79 63 55 77 78 77 78
59 59 58 57 57 56 55 62 60 57 64 69 74 72 82 89 92 87 92 86 84 77 67 74 65 61 66 68 69 68 66 65 70 76 72 70 70 73 77 75 75 75 77 77 77
58 58 58 57 57 55 60 64 74 73 64 72 76 78 84 86 77 84 92 79 76 68 73 68 61 70 72 71 69 69 66 66 71 75 72 71 69 74 77 77 78 77 76 76 77
58 58 57 56 55 56 61 67 80 77 65 74 78 77 80 84 77 80 86 81 74 70 69 59 63 74 71 68 66 68 66 65 66 71 73 65 64 70 76 78 80 80 81 80 78
57 57 56 54 53 66 64 73 74 73 58 67 72 77 82 82 74 88 89 82 76 67 70 59 69 70 69 68 70 59 69 69 66 60 56 65 50 53 64 72 75 77 77 78 79
56 56 54 55 64 67 75 81 80 71 42 72 74 89 84 76 79 79 88 81 71 70 69 64 69 68 66 68 72 62 68 68 69 64 62 59 54 56 60 64 70 74 76 77 77
56 55 54 55 60 66 73 75 71 52 42 66 75 72 72 75 77 81 78 83 82 72 73 65 75 73 70 74 74 73 67 68 69 64 47 55 52 51 55 61 66 73 75 76 76
55 55 56 66 65 76 72 65 51 45 69 65 67 71 70 69 71 73 70 68 65 59 59 65 68 75 76 69 73 71 64 51 46 46 46 65 56 56 61 66 58 57 73 75 75
55 54 56 64 72 71 67 54 45 59 62 73 71 71 65 70 70 70 68 64 71 69 62 58 55 69 75 71 61 66 64 51 33 33 46 62 52 63 73 71 64 70 75 75 74
54 56 55 60 64 65 56 44 52 63 70 69 70 64 64 70 69 68 67 66 71 72 59 51 54 71 74 75 72 66 60 69 56 50 49 56 64 73 75 74 76 74 73 72 73
57 54 57 64 64 61 52 49 60 72 74 73 62 66 60 65 64 65 65 72 70 75 75 52 43 62 71 73 73 67 71 56 57 41 40 52 56 58 65 68 72 72 71 72 73
61 55 69 68 64 57 48 55 63 74 76 69 66 65 66 64 66 64 66 72 74 73 75 70 57 61 66 63 63 64 61 62 62 55 43 41 52 68 68 71 70 73 73 72 71
60 50 67 66 52 57 53 62 64 71 76 72 72 70 67 68 65 65 61 68 76 75 66 71 64 52 61 71 73 69 64 64 48 48 51 46 50 72 71 72 73 73 75 74 73
56 57 64 66 50 51 59 63 68 69 70 69 68 71 73 67 62 66 69 69 71 71 66 70 60 49 55 63 68 63 66 67 65 55 48 41 50 72 72 71 73 72 74 75 74
59 47 52 56 64 59 57 60 62 72 72 73 71 73 70 66 70 65 66 66 69 70 55 64 63 57 48 57 64 58 63 66 63 46 47 49 58 67 69 69 71 71 73 74 73
57 56 59 45 54 60 63 63 62 63 71 74 69 69 67 61 64 63 68 64 66 56 65 66 55 60 63 66 64 63 63 64 61 61 51 57 60 67 71 71 73 74 73 73 73
54 60 64 59 60 59 58 61 63 67 68 66 66 69 70 64 65 62 67 64 62 64 64 66 55 56 53 62 63 58 63 64 64 64 63 64 62 74 73 73 71 71 73 71 71
64 65 64 56 58 58 59 64 65 69 71 74 71 69 67 69 71 71 70 70 71 64 61 60 52 48 45 54 52 43 53 59 62 66 65 55 65 72 70 70 69 70 71 70 70

GFSSW_sfc_temp_015.txt.gz
Temp
62 62 62 62 62 62 61 61 60 59 60 60 60 60 60 59 58 59 54 63 63 67 68 71 72 71 71 66 69 67 54 51 57 54 55 60 61 64 71 70 70 64 63 63 64
62 62 62 62 61 61 61 61 60 59 59 60 60 60 59 58 54 56 67 69 68 68 70 68 68 69 62 64 64 60 52 55 63 65 60 63 62 65 67 62 58 63 66 66 65
62 62 62 61 61 61 61 60 60 59 59 60 60 60 59 58 54 71 69 69 68 69 73 73 74 71 63 65 64 61 58 62 62 65 66 63 63 66 64 58 63 61 62 63 67
61 61 61 61 61 61 60 59 59 60 59 60 60 60 59 55 58 72 69 69 68 74 72 71 70 64 62 60 67 59 69 72 65 67 63 63 64 64 60 61 65 66 67 65 66
60 60 60 60 60 60 60 59 59 59 59 59 60 59 54 55 63 73 68 69 73 73 70 71 69 66 62 65 66 66 68 73 70 71 67 70 64 64 59 63 69 67 69 67 69
60 60 59 60 60 59 59 58 58 58 58 59 59 58 51 55 78 73 74 72 75 72 73 74 72 74 69 68 63 71 70 69 71 71 69 67 65 68 63 64 64 67 66 71 70
60 60 59 59 59 58 58 57 58 58 59 58 59 58 56 58 78 76 78 73 76 75 71 76 76 70 69 65 72 71 63 65 68 66 66 70 60 61 68 67 65 66 68 71 72
60 60 59 58 58 57 57 57 57 58 58 58 58 54 52 79 74 77 78 76 79 79 77 78 77 71 66 69 67 64 63 54 67 70 69 67 53 64 69 69 66 67 69 71 71
60 59 58 58 57 57 56 56 57 58 58 58 52 51 56 78 76 82 81 78 79 80 78 84 74 64 67 57 53 58 49 56 62 72 65 60 54 66 70 70 66 66 67 68 68
59 59 58 58 57 56 56 56 58 56 57 61 60 52 63 71 80 83 82 82 77 74 71 68 62 56 56 52 46 51 53 53 57 63 63 58 56 64 65 64 62 63 61 66 67
59 59 58 57 57 56 53 51 50 49 52 55 62 63 75 80 84 79 82 78 75 69 56 62 53 49 58 60 64 62 59 57 59 66 61 60 59 59 59 58 64 59 60 61 66
58 58 58 57 56 56 51 51 62 62 53 64 65 69 75 78 72 77 81 70 66 58 62 58 52 63 67 67 62 60 57 57 64 66 62 56 57 62 58 59 62 58 59 61 64
58 58 57 56 55 53 51 56 67 64 52 65 69 68 73 76 70 71 76 72 66 62 63 54 61 67 67 64 60 60 58 56 58 61 59 59 55 58 64 65 63 63 61 68 68
57 57 56 55 51 54 52 63 62 60 44 60 65 71 76 76 67 79 80 73 67 63 61 60 66 65 63 62 62 54 64 62 61 57 46 56 39 51 62 63 65 68 67 68 68
56 56 54 56 52 54 65 65 64 59 32 64 68 81 77 69 70 73 80 72 62 65 63 59 60 60 59 62 66 58 64 60 59 55 53 54 47 47 55 59 62 63 65 64 68
56 56 54 53 52 55 62 63 61 46 33 61 69 67 66 68 69 74 72 73 71 65 65 62 68 63 62 69 67 66 61 59 56 51 39 51 48 46 50 58 62 63 68 67 66
55 55 54 60 54 63 60 56 41 33 62 60 61 66 64 62 65 66 64 59 54 50 50 60 62 66 67 61 64 61 53 40 38 35 33 54 49 51 57 63 63 64 66 63 64
54 54 55 58 62 62 57 50 37 52 54 68 64 64 58 63 62 64 60 54 60 59 51 49 45 59 67 62 57 57 53 39 33 29 39 51 45 52 67 66 67 68 64 63 63
54 53 54 55 58 57 52 41 41 53 62 61 63 57 57 63 62 60 57 56 61 61 50 47 50 62 65 66 63 58 49 56 42 43 37 46 54 63 62 61 60 60 59 60 62
52 51 52 58 57 54 47 44 51 63 65 65 54 59 52 58 58 57 56 63 62 66 60 51 45 56 61 64 65 60 61 46 43 32 31 42 45 47 56 59 59 56 59 61 62
52 47 56 60 56 50 42 47 55 65 66 62 59 57 58 56 59 56 58 64 66 63 61 53 51 49 57 56 54 54 51 53 51 40 32 29 39 56 57 59 58 60 63 63 63
51 43 56 59 44 47 42 51 56 62 66 63 63 61 58 61 57 56 56 59 67 66 57 56 50 37 51 63 65 61 55 53 35 40 35 32 39 60 61 60 62 62 65 64 65
47 50 57 59 40 40 49 54 58 59 60 62 60 62 61 59 51 57 58 63 64 63 58 58 49 34 44 53 59 55 58 59 53 41 38 29 38 61 63 60 61 59 63 63 64
48 43 49 50 53 49 47 50 51 62 61 65 64 63 59 58 60 56 54 61 62 60 53 58 54 45 36 46 53 49 56 57 52 34 35 36 47 56 57 60 61 61 60 61 62
48 47 53 43 45 48 53 53 52 53 62 65 61 60 58 51 55 54 55 56 60 55 58 56 47 49 53 56 58 55 56 56 53 50 41 46 50 56 56 57 58 61 62 62 63
45 50 49 47 51 48 51 51 54 57 60 59 58 61 60 55 56 54 58 55 54 55 54 56 43 44 42 54 53 49 53 54 54 54 52 53 51 59 61 61 61 61 62 62 62
49 53 55 49 49 47 50 54 56 60 62 67 62 59 56 59 61 60 59 58 59 53 51 49 41 37 35 44 44 35 46 52 54 56 53 45 54 58 56 58 58 58 61 60 62

GFSSW_sfc_temp_018.txt.gz
Temp
62 62 62 61 61 61 61 61 60 60 60 60 60 60 60 59 58 56 51 62 60 65 67 67 66 65 64 59 63 62 50 46 50 55 57 60 59 64 68 63 62 62 61 62 64
62 62 62 61 60 60 61 60 59 59 59 59 59 60 59 58 53 52 63 66 65 66 66 65 63 64 58 58 60 58 49 52 61 61 57 59 63 66 64 60 58 57 61 63 63
62 62 61 61 60 60 60 59 59 59 59 59 59 60 58 57 52 66 68 66 66 67 69 69 68 65 57 59 58 57 54 61 62 62 62 60 61 64 62 56 60 55 59 61 61
61 61 61 61 60 60 59 59 59 59 59 59 59 59 58 53 55 70 68 66 67 70 69 66 64 59 57 57 62 56 65 65 62 64 62 64 65 62 61 62 64 62 62 62 60
60 60 60 61 60 59 59 58 58 58 58 59 59 59 53 53 58 71 68 68 69 70 67 66 64 61 58 62 60 60 65 67 66 66 64 68 63 61 58 61 64 66 65 61 62
60 60 59 59 59 59 58 58 57 57 58 59 59 58 51 53 74 71 70 69 70 67 68 67 66 68 64 63 59 64 67 65 66 65 66 64 62 62 59 61 62 64 64 62 61
60 59 59 59 59 58 58 57 57 57 57 58 58 57 52 58 73 70 73 70 71 70 68 71 71 66 65 63 66 67 61 62 62 64 63 66 57 57 63 62 62 63 64 66 61
60 59 58 58 58 57 57 56 56 57 57 58 58 52 51 71 68 70 71 72 75 74 72 74 73 68 64 66 64 60 58 52 62 66 63 63 51 63 64 62 59 62 64 65 66
59 59 58 58 57 57 56 56 56 57 57 57 50 50 53 72 71 75 74 72 73 73 72 79 70 62 64 55 50 53 47 52 59 69 65 60 51 62 65 64 60 60 62 65 66
59 59 58 57 57 56 55 56 56 55 56 59 58 49 60 67 75 78 75 76 72 68 67 64 59 54 54 51 43 48 51 51 54 63 62 57 53 61 62 62 58 58 60 63 65
59 59 58 57 57 56 53 51 51 50 50 53 58 58 66 73 78 76 78 74 70 66 55 58 52 47 53 54 58 59 56 55 54 61 58 55 55 57 59 60 56 58 61 61 66
58 58 58 57 57 56 52 49 57 57 50 60 62 63 69 70 64 72 77 67 63 56 57 54 48 58 61 63 61 57 54 53 57 61 59 52 54 55 56 63 61 60 61 65 62
57 58 57 57 55 53 50 52 63 61 49 58 63 63 66 70 64 68 73 67 62 57 57 52 58 63 64 61 57 55 54 52 53 57 57 55 49 53 59 60 61 62 67 68 64
57 57 56 55 52 53 50 60 59 58 43 53 60 65 71 71 63 74 75 70 62 58 58 55 61 62 59 57 57 50 62 59 57 52 45 52 39 49 56 57 60 62 58 60 61
56 56 54 57 52 53 61 61 60 57 28 59 62 75 71 65 66 67 75 68 60 60 59 55 57 56 57 58 61 55 59 57 56 50 46 47 44 50 50 56 57 58 60 59 62
55 55 54 53 51 53 59 61 57 40 31 55 65 62 62 64 64 68 68 71 68 62 60 57 64 62 62 66 63 62 58 55 51 47 35 46 44 42 47 59 61 59 62 63 65
55 55 55 57 52 57 59 57 43 35 57 55 57 61 59 58 60 62 59 57 53 48 47 55 57 61 64 56 61 58 49 39 37 32 32 50 45 48 56 58 60 60 60 64 64
55 54 55 58 56 56 56 49 35 46 50 61 60 60 55 59 59 59 56 52 55 55 48 46 43 56 62 57 52 54 50 37 32 29 38 47 40 49 61 64 64 62 61 59 59
54 53 52 56 55 57 51 40 40 47 57 56 58 53 52 58 58 56 53 52 57 57 48 44 47 57 61 60 58 54 47 52 39 37 35 41 51 56 59 57 57 58 58 57 57
51 50 52 56 57 54 46 42 48 58 60 59 51 55 48 53 53 53 52 57 57 60 59 52 44 55 59 62 59 55 57 44 40 33 31 40 41 44 52 55 57 55 55 57 58
50 46 54 57 56 47 41 43 51 61 61 56 54 52 54 52 54 52 53 59 61 59 58 52 48 47 55 54 55 51 49 49 47 38 33 29 38 52 55 57 57 57 57 57 58
48 41 54 57 43 45 43 49 51 56 61 58 58 55 54 54 53 52 53 58 62 58 54 54 47 35 49 59 64 55 52 50 34 39 32 30 39 56 57 58 58 57 59 58 61
44 47 54 56 38 38 47 50 53 54 56 56 56 59 59 54 49 53 55 60 63 60 55 53 45 34 43 51 54 52 55 53 47 37 36 29 37 57 56 58 60 57 58 59 59
45 40 46 48 50 45 43 45 46 56 55 57 57 57 55 52 55 53 53 58 59 60 51 55 49 43 36 44 50 46 52 52 48 33 35 35 45 53 55 56 58 58 55 56 58
46 46 48 38 42 47 47 47 45 46 57 59 55 56 53 48 48 50 53 53 56 53 57 53 46 47 49 51 52 51 51 50 49 47 39 45 46 54 56 54 56 57 59 58 57
43 46 47 44 48 44 46 45 46 50 53 54 53 56 55 52 53 51 54 52 52 53 53 52 43 42 42 48 49 46 50 50 50 50 48 49 48 52 55 54 55 56 59 58 57
48 51 49 46 45 43 44 48 49 53 56 59 57 55 51 57 58 57 58 57 56 52 48 47 39 36 36 40 42 34 44 49 51 52 51 42 49 52 51 53 52 53 55 55 56

GFSSW_sfc_temp_021.txt.gz
Temp
62 62 62 61 61 60 60 60 60 60 59 59 59 59 60 59 57 54 52 62 58 64 66 65 64 63 61 57 58 56 45 41 48 52 55 58 56 59 63 60 60 61 59 63 64
62 62 62 61 60 60 59 59 59 59 59 59 59 59 59 58 52 51 63 65 64 65 64 63 60 61 56 54 57 53 45 48 57 57 56 57 58 64 61 58 56 58 61 63 64
62 62 61 61 60 60 59 59 59 59 59 59 59 59 58 57 52 66 67 65 65 66 66 66 66 63 54 54 56 53 51 56 60 61 60 57 61 63 60 55 57 57 58 61 62
61 61 61 61 60 60 59 58 58 59 58 59 59 59 58 51 53 66 67 65 66 65 65 64 63 56 54 53 56 50 60 61 62 61 61 60 63 62 58 57 61 61 62 60 60
60 60 60 61 60 59 58 58 58 58 58 58 59 59 52 51 59 68 67 66 65 67 65 64 61 58 55 58 56 55 61 63 64 64 63 65 61 59 54 58 61 61 61 60 61
60 60 59 60 59 59 58 57 57 57 57 58 58 58 48 51 71 69 67 65 66 65 64 64 64 64 60 60 57 63 63 61 60 62 64 61 60 60 56 60 59 62 59 62 62
60 59 59 59 59 58 58 57 57 56 57 58 58 56 49 56 68 66 70 66 67 66 65 67 67 62 63 60 65 63 59 59 58 60 60 64 58 57 58 61 59 60 60 61 61
60 59 58 58 58 57 57 57 56 57 57 57 58 50 48 69 64 67 66 68 71 70 68 70 68 64 60 64 63 58 57 50 57 61 61 62 49 58 59 60 57 59 58 60 61
59 59 58 57 57 57 56 56 56 57 57 57 49 48 51 69 66 71 71 68 70 70 69 76 66 59 61 51 48 52 46 49 55 64 62 59 50 58 59 60 57 58 59 59 59
58 59 58 57 57 56 55 56 56 55 56 58 56 48 58 64 71 72 68 71 67 65 64 61 56 52 51 49 41 44 47 47 51 58 59 56 53 55 58 58 57 56 57 59 59
58 58 58 57 57 56 53 50 51 50 51 54 55 55 61 68 72 69 72 69 67 62 53 56 50 46 51 53 54 54 50 50 53 60 56 54 53 56 57 56 54 54 56 59 60
57 57 57 57 57 56 50 49 56 56 49 57 59 59 65 67 61 67 74 65 61 54 54 52 47 56 57 56 54 56 51 50 55 57 57 52 49 51 56 57 57 57 57 60 62
57 57 57 57 56 52 49 53 62 60 48 56 60 59 62 65 60 62 70 64 59 54 54 49 55 60 60 57 55 54 50 49 51 52 53 52 47 50 56 57 59 60 62 63 62
56 56 56 55 51 52 50 59 58 56 43 51 56 61 65 66 60 70 71 67 58 56 54 52 59 58 55 56 57 49 56 55 53 48 42 50 38 46 52 55 57 61 57 61 62
55 56 54 56 53 52 59 61 58 54 29 56 58 71 66 63 63 66 71 65 57 57 56 54 55 54 54 58 58 54 57 54 52 46 46 45 41 45 50 52 57 60 61 60 59
55 56 54 54 52 54 58 59 57 39 30 52 61 59 58 61 61 63 65 66 64 57 56 56 60 58 59 62 60 59 54 52 47 45 35 44 42 40 44 55 59 63 62 63 56
55 56 54 57 50 57 57 56 41 31 54 52 54 57 56 54 57 59 57 54 52 46 45 52 54 57 61 55 57 55 47 37 36 32 32 46 42 45 55 56 59 58 60 59 59
55 54 55 57 55 55 57 48 35 44 46 57 57 55 52 56 55 56 53 50 52 51 45 45 42 54 59 55 51 50 49 36 32 29 37 45 39 48 57 59 60 60 59 58 56
54 52 53 56 57 54 49 39 39 46 54 54 55 50 49 54 55 54 51 50 54 55 47 42 45 53 57 59 59 50 45 49 37 34 32 38 46 55 56 55 52 54 56 55 55
47 48 51 58 58 54 45 41 46 55 57 54 48 51 45 49 50 50 49 55 54 57 57 51 43 51 55 57 57 53 55 42 38 32 31 36 38 42 52 56 54 50 54 55 53
46 43 54 57 56 46 38 43 49 59 57 52 49 49 50 49 50 48 50 56 57 56 56 51 48 46 53 51 52 49 46 45 44 36 31 28 36 49 53 56 57 56 54 55 54
45 38 52 57 43 44 40 48 52 55 56 54 54 52 50 51 50 49 50 56 59 56 52 52 46 35 49 54 56 53 50 47 33 37 31 29 36 53 54 55 55 57 57 54 56
40 44 52 54 39 39 45 47 52 52 52 52 52 54 53 50 47 50 51 58 57 56 51 52 43 33 41 48 51 48 51 49 44 36 34 28 37 54 52 54 57 56 58 56 56
43 37 44 47 50 45 42 43 44 54 51 53 52 54 51 50 52 49 50 55 57 55 52 54 45 43 38 43 47 43 49 49 46 32 34 34 43 51 54 54 55 56 55 53 54
42 42 47 37 41 44 46 45 44 45 51 53 49 50 48 43 46 46 50 52 54 52 51 52 45 45 46 49 50 49 49 47 46 45 38 44 43 50 51 53 52 55 54 55 54
39 42 47 41 46 43 44 43 44 47 48 48 49 53 53 47 49 47 51 49 50 51 49 50 41 43 39 45 46 45 49 48 48 47 46 45 45 49 50 49 51 52 54 52 53
45 48 47 44 43 42 42 44 46 50 50 54 54 52 47 52 56 55 53 54 55 51 46 45 38 36 36 38 39 34 42 47 48 50 49 41 49 50 48 50 48 49 51 51 52

GFSSW_sfc_temp_024.txt.gz
Temp
62 62 62 61 60 60 60 59 59 59 59 60 59 59 59 59 57 53 50 62 58 64 64 63 62 59 59 55 55 52 44 39 44 47 52 57 55 57 60 57 59 61 60 63 63
62 62 62 62 60 60 59 59 58 59 59 59 59 59 59 58 51 49 62 65 65 65 64 61 58 57 55 52 54 51 42 46 53 54 54 55 56 58 57 55 57 59 62 63 63
62 62 62 61 60 60 59 58 58 58 58 58 59 59 58 56 54 63 66 65 65 65 64 64 64 61 52 53 51 49 48 53 57 59 59 56 57 60 56 53 57 57 59 61 62
61 61 61 61 61 60 59 58 58 58 58 58 59 59 58 51 52 62 67 65 66 64 65 61 59 54 51 50 56 51 58 58 60 58 58 59 60 59 57 57 62 61 61 62 61
60 60 60 61 61 60 58 58 58 58 58 58 58 59 54 52 58 65 66 66 63 64 62 60 58 56 52 54 54 53 58 60 61 59 59 62 58 56 53 59 63 62 61 61 60
59 59 60 60 60 59 58 58 57 57 57 58 58 58 51 52 68 67 64 64 63 62 62 62 61 62 57 56 55 59 60 57 58 60 62 59 57 56 56 58 58 60 58 59 60
59 59 59 59 59 59 58 57 57 56 57 57 58 55 49 57 66 64 67 64 64 64 61 64 64 59 59 56 61 59 56 57 56 59 60 62 53 51 58 58 57 57 58 58 60
58 58 58 58 58 58 57 57 56 57 57 57 57 52 49 65 62 64 64 65 67 66 64 68 66 61 57 60 59 56 56 51 56 59 60 55 47 53 58 56 58 58 58 58 58
58 58 58 57 57 57 56 56 56 57 57 57 49 50 50 67 63 68 68 66 67 67 66 73 63 56 58 50 47 49 45 48 52 60 58 57 49 54 57 57 55 56 56 57 57
57 57 57 57 57 56 55 56 56 55 55 57 56 48 58 61 66 68 65 68 65 64 61 59 54 50 49 47 40 42 44 41 48 54 54 53 49 53 56 57 55 54 56 56 57
57 57 57 57 57 56 53 49 49 49 51 53 54 53 59 66 67 65 67 65 64 60 51 53 48 44 49 51 51 50 47 46 51 58 55 51 49 51 53 53 53 53 54 56 58
56 56 57 57 56 55 50 47 52 52 46 55 56 57 63 64 58 64 69 62 58 52 52 50 45 54 55 54 53 52 48 46 52 56 52 47 47 49 52 55 55 56 55 57 58
56 56 56 56 55 52 48 53 60 55 45 55 57 57 60 63 58 59 66 61 56 52 51 47 52 57 57 53 52 51 48 48 49 51 50 49 45 49 54 55 56 56 58 59 58
56 55 55 55 51 51 49 59 58 53 40 50 53 58 61 62 58 66 68 64 55 54 52 50 55 56 54 52 54 49 56 51 50 46 40 46 37 45 50 52 54 56 55 58 59
56 55 55 55 50 49 56 59 57 53 27 55 56 67 62 60 61 62 68 63 55 55 54 52 52 52 51 55 56 53 55 50 50 45 44 42 40 44 46 50 55 56 58 58 60
56 55 55 53 53 52 58 58 55 40 29 50 58 55 55 58 58 60 61 64 61 55 52 53 56 54 55 57 57 57 54 50 46 43 34 41 40 41 43 54 59 59 58 61 58
55 55 54 57 52 54 57 55 41 31 51 49 51 55 52 52 55 57 54 52 49 44 43 49 52 56 57 52 55 53 47 37 35 32 32 44 40 45 53 54 56 57 59 60 62
55 54 53 56 58 53 55 46 33 42 47 54 54 52 50 53 53 53 51 47 49 49 42 43 40 52 56 53 51 48 47 35 31 28 36 42 38 48 55 55 58 58 57 57 58
54 50 48 55 57 55 48 36 40 45 52 51 54 47 46 52 51 51 49 47 52 53 46 40 43 52 55 55 54 48 42 47 36 33 32 36 44 53 53 54 52 52 53 53 52
47 46 46 56 57 53 43 40 44 53 56 53 46 50 43 46 49 49 46 52 52 55 55 49 42 49 53 55 54 51 52 41 37 32 30 34 35 41 51 53 53 52 52 53 51
46 41 48 56 55 46 38 42 48 55 56 51 48 47 47 47 48 45 47 52 55 52 54 48 46 44 49 48 49 48 45 42 42 35 31 27 35 47 51 53 53 53 53 53 53
45 34 51 56 42 44 40 45 50 53 56 53 52 50 48 49 46 47 47 53 56 54 50 51 45 35 47 51 54 50 48 45 34 36 30 28 34 51 52 53 52 55 56 52 53
40 42 51 53 36 38 46 47 49 51 51 51 49 52 51 47 44 48 49 55 54 54 50 50 41 32 40 46 48 46 47 46 41 35 33 27 35 52 51 52 54 54 54 53 54
41 34 43 46 48 43 42 42 42 52 51 51 49 51 49 48 49 47 48 52 53 55 51 53 43 41 38 42 45 41 46 45 44 32 34 33 41 50 52 51 53 53 51 53 52
40 37 44 35 38 42 45 45 41 43 52 52 46 47 47 41 44 44 47 49 52 50 50 51 42 42 45 47 47 47 47 44 43 42 38 42 41 49 49 51 51 51 50 51 51
37 38 44 38 43 42 44 42 42 45 47 45 45 49 48 44 47 44 47 47 48 49 47 47 41 40 38 44 44 43 46 45 44 43 43 43 43 49 47 46 47 49 50 49 49
42 44 42 42 41 39 41 44 45 48 49 51 50 48 44 50 55 54 53 51 50 48 45 44 38 36 37 36 38 34 41 45 44 46 47 40 47 48 45 46 45 47 49 48 47

GFSSW_sfc_temp_027.txt.gz
Temp
62 62 62 62 61 60 60 60 59 59 59 59 59 59 60 59 58 56 58 68 64 64 64 68 70 68 69 67 67 64 59 55 56 57 61 64 62 64 65 63 63 64 63 64 61
62 62 62 62 61 60 60 59 59 59 59 59 59 59 59 58 53 55 67 65 65 66 69 68 64 67 66 65 66 64 57 57 62 65 63 63 63 63 62 58 59 60 62 62 62
62 62 62 62 61 60 60 59 58 59 59 58 58 59 58 58 57 69 66 65 65 66 71 71 69 68 64 64 64 60 59 62 64 66 66 62 63 65 62 58 61 58 59 60 61
61 61 61 61 61 60 59 58 58 58 58 58 59 59 58 55 59 71 67 65 66 67 71 69 68 64 61 61 65 59 63 64 66 66 64 63 65 61 60 62 65 64 64 61 60
59 59 60 61 61 60 59 58 58 58 58 58 58 59 57 58 63 67 66 66 66 69 69 68 66 64 61 62 63 60 64 66 66 65 62 65 60 58 56 62 62 64 63 62 60
58 58 59 60 60 59 59 58 58 57 57 58 58 58 55 55 70 68 66 65 68 69 68 69 68 68 64 63 62 65 64 65 64 64 64 61 59 61 57 63 61 62 63 64 62
58 58 58 59 59 59 58 58 57 57 57 58 58 56 53 60 68 68 68 69 68 70 68 70 71 68 67 62 67 65 61 62 62 64 62 66 59 55 59 60 59 60 62 63 64
58 57 57 58 58 58 58 57 57 57 57 57 57 53 52 69 68 67 68 69 70 70 71 73 72 68 65 67 65 61 61 57 62 63 63 64 53 55 59 59 58 60 61 62 64
57 57 57 56 56 56 57 56 56 57 57 57 53 51 55 68 66 71 71 70 69 70 71 74 71 64 64 60 57 57 55 56 58 65 63 63 55 59 60 60 59 60 62 63 63
57 57 56 56 56 56 56 56 56 56 56 57 56 51 60 64 70 70 69 71 70 67 67 67 62 60 58 59 50 52 54 56 57 63 62 60 57 57 58 59 58 61 62 62 63
57 57 56 56 56 56 55 54 53 51 51 55 57 55 61 68 70 69 69 69 70 67 60 61 58 54 58 57 59 58 55 55 60 63 61 58 58 56 58 59 58 59 60 62 64
58 57 56 56 56 55 54 50 55 55 47 56 56 58 62 67 60 66 71 65 62 58 59 57 53 59 58 58 57 57 55 56 59 60 61 57 57 58 57 59 61 61 60 63 65
57 56 56 55 55 54 51 53 60 59 47 53 56 57 60 64 59 62 68 64 60 56 56 54 60 59 59 57 56 57 54 54 55 57 57 56 55 56 59 59 62 62 65 65 65
56 56 55 55 52 53 51 59 59 57 43 50 53 59 61 63 58 68 70 68 61 57 55 57 60 58 57 56 58 54 61 57 55 54 51 57 48 53 57 58 60 63 63 65 66
56 56 55 54 51 51 57 58 57 55 31 56 55 69 63 61 63 63 69 67 58 57 58 57 57 56 56 58 59 58 59 58 56 52 51 51 50 55 54 56 60 63 64 66 67
56 56 55 52 53 55 58 59 56 42 32 51 57 54 55 59 62 64 65 69 65 59 59 58 63 62 61 62 61 60 58 55 52 51 44 49 50 53 55 60 64 67 65 66 67
56 56 55 56 52 57 58 55 41 33 52 51 52 54 55 54 57 58 57 56 55 49 49 56 58 62 63 59 60 59 55 46 43 41 41 49 48 55 63 62 63 64 66 68 69
55 55 54 55 58 55 56 45 34 43 47 56 56 53 50 54 55 56 54 53 56 55 49 49 47 58 61 60 57 55 55 44 36 36 43 48 45 57 64 64 64 65 65 66 67
55 50 49 51 56 55 48 36 39 45 51 51 55 48 49 53 54 55 52 54 57 56 51 45 48 59 60 61 62 53 50 55 42 39 40 46 51 60 62 64 62 63 62 63 63
47 45 46 53 55 50 43 40 44 53 55 54 46 51 45 49 50 52 49 55 55 57 60 54 48 55 58 62 59 57 57 47 45 37 35 43 44 51 59 61 62 62 64 65 64
45 39 50 53 53 45 36 41 47 54 56 51 48 47 49 48 50 48 51 56 57 55 59 55 53 50 56 55 55 53 51 48 50 45 40 38 45 57 58 61 63 64 62 62 64
43 33 48 53 38 42 38 45 49 51 55 53 53 51 48 50 47 48 50 56 57 57 54 56 50 43 51 57 60 57 54 51 44 42 40 39 44 60 61 60 60 63 62 64 64
38 40 48 49 33 37 44 46 50 49 51 50 49 53 54 51 45 50 51 57 55 56 54 54 47 42 47 53 55 54 54 51 47 44 40 39 46 59 59 60 62 61 63 63 63
40 33 41 42 47 42 40 41 43 51 51 52 51 53 52 50 50 49 50 55 54 57 51 56 48 47 43 48 52 48 50 50 51 42 44 44 50 59 61 60 64 62 61 62 62
40 36 42 33 37 41 44 44 41 42 50 53 48 49 49 45 46 46 51 52 54 51 54 56 47 46 49 52 51 52 51 49 49 50 46 51 47 57 60 61 60 59 58 58 57
36 37 41 42 43 40 41 41 41 45 48 46 46 49 50 47 49 47 51 51 50 52 51 51 46 46 46 48 49 48 51 51 51 49 49 50 49 58 59 58 56 55 56 55 55
42 44 42 42 40 38 38 42 44 48 49 52 51 48 46 51 53 54 55 55 55 54 48 48 42 42 42 43 46 39 45 49 50 52 53 47 55 56 55 54 54 54 54 53 52

GFSSW_sfc_temp_030.txt.gz
Temp
62 62 62 62 61 61 61 60 59 59 60 60 60 59 60 59 59 68 72 76 74 66 65 78 80 80 81 78 78 78 69 68 65 67 69 74 70 74 72 70 72 71 73 64 62
62 62 63 62 61 61 60 60 59 59 59 59 59 59 59 59 66 71 72 66 66 66 80 78 75 78 78 76 78 74 69 67 73 74 72 74 71 72 70 69 67 63 60 61 63
61 61 61 62 61 61 60 59 59 59 59 59 59 59 59 62 67 79 66 65 66 69 82 81 81 78 73 76 75 74 68 74 74 75 76 67 68 72 71 68 70 60 58 60 61
60 60 60 61 61 60 60 59 59 59 59 59 59 59 59 67 66 81 68 66 66 79 81 79 77 74 72 70 75 68 74 74 75 75 73 69 70 65 69 67 72 67 62 61 62
59 59 60 60 60 60 59 59 59 59 58 59 59 59 65 69 74 79 67 68 77 79 80 77 75 74 70 72 72 69 73 75 76 73 70 73 69 67 64 66 71 66 65 61 62
58 58 58 59 59 59 59 59 58 58 58 58 59 58 65 63 80 78 79 77 81 80 79 79 77 77 73 72 70 74 74 74 73 73 71 68 67 69 63 68 65 65 64 61 60
58 58 58 58 58 58 59 58 58 58 58 58 59 63 61 68 81 80 78 80 81 82 78 81 80 76 75 71 75 74 68 72 72 71 70 71 67 65 67 70 67 65 69 71 68
59 58 57 57 57 57 57 57 57 57 58 58 58 62 63 77 82 77 81 79 79 82 79 81 81 77 73 76 74 70 69 65 70 71 71 71 61 66 66 68 69 70 70 71 71
59 58 57 56 56 57 57 57 57 57 58 58 60 61 65 70 72 81 81 78 79 79 79 80 79 74 74 70 68 68 62 63 65 73 71 71 65 69 66 68 70 71 69 71 71
59 58 57 56 56 56 56 56 59 57 61 63 64 58 68 71 77 78 82 80 76 76 73 73 74 70 71 68 58 61 62 65 63 71 71 69 67 71 68 68 67 72 72 72 72
59 58 57 56 56 56 59 68 64 60 59 64 66 66 70 76 77 76 78 76 77 74 67 71 66 63 68 70 68 66 64 63 69 71 68 68 69 69 70 68 67 70 72 73 73
58 58 58 57 56 56 62 62 62 62 56 68 66 68 72 73 68 74 80 71 69 65 70 65 62 70 70 68 66 65 63 63 68 69 67 69 68 70 70 69 70 72 71 73 76
57 58 57 56 56 55 61 63 69 67 56 63 67 66 68 70 68 73 76 74 69 66 66 64 67 69 67 66 63 65 64 62 62 65 68 67 65 67 71 72 72 73 75 76 77
57 56 56 55 54 62 60 67 68 66 52 59 59 65 67 71 64 80 79 76 69 65 68 67 71 66 66 65 67 61 70 65 63 61 57 65 55 64 69 68 68 71 72 75 77
55 56 55 54 54 59 65 67 65 62 38 63 60 74 69 67 70 69 80 74 67 66 66 64 66 65 64 66 69 64 68 66 65 63 60 59 58 64 65 66 71 73 74 76 79
54 56 55 56 57 61 67 66 62 48 39 57 62 59 59 64 68 71 70 76 76 69 69 69 72 70 70 69 70 69 65 64 64 63 50 59 59 63 66 70 74 77 77 78 79
54 55 54 58 54 65 63 58 45 40 59 56 57 59 60 59 63 66 64 62 62 56 57 65 66 71 70 66 67 68 63 52 50 49 48 58 55 62 71 74 74 75 79 81 80
54 54 55 57 62 60 56 46 38 52 54 61 60 60 56 62 63 63 63 60 67 66 62 57 53 66 71 68 64 64 64 52 40 43 52 56 52 64 74 75 77 77 77 78 79
54 50 53 58 61 54 47 37 45 54 60 58 59 55 56 60 62 61 61 61 65 68 59 57 57 68 68 70 69 61 58 66 54 50 50 57 61 70 74 74 74 75 75 76 78
51 46 49 59 59 48 40 41 52 61 63 62 53 58 54 56 57 59 59 65 65 70 73 63 55 65 65 68 67 66 68 54 56 42 41 52 54 60 66 69 72 74 75 77 77
49 39 52 59 57 41 33 44 54 63 63 58 57 58 58 56 59 58 58 60 68 67 72 69 62 57 62 61 63 60 60 60 60 56 47 44 54 69 68 72 72 74 74 76 77
46 34 53 58 38 41 36 49 55 58 62 60 61 60 57 58 57 58 56 61 68 71 61 68 62 54 59 65 68 69 64 63 52 50 52 49 53 73 73 74 72 74 73 75 76
38 40 51 55 34 35 47 49 54 55 57 56 57 61 61 57 53 58 59 65 65 67 65 65 58 50 54 59 63 61 64 65 61 57 52 46 54 70 72 73 75 73 76 74 74
39 33 40 43 52 45 46 45 47 56 57 60 59 61 57 55 58 54 56 58 61 68 56 63 62 56 49 56 63 56 61 63 61 52 54 54 59 67 71 72 76 75 74 74 72
39 38 43 32 41 47 51 49 45 46 56 59 56 57 56 50 53 52 55 56 58 54 64 65 56 60 62 64 64 62 62 62 59 60 55 59 61 66 71 73 74 71 69 68 68
36 42 47 45 46 45 47 48 45 50 53 51 52 56 58 52 55 50 55 55 56 59 61 64 56 59 55 62 60 58 63 64 63 63 63 62 62 72 74 73 69 67 67 66 65
44 54 50 46 44 43 45 48 49 52 55 59 57 53 52 54 58 58 57 58 59 58 57 58 56 52 49 55 54 45 55 61 62 65 63 58 66 73 70 69 69 67 67 65 63

GFSSW_sfc_temp_033.txt.gz
Temp
61 62 63 62 62 61 61 61 60 60 60 60 60 60 60 59 59 77 77 76 78 66 65 85 85 86 87 84 85 85 72 67 69 70 72 80 75 81 81 76 78 74 69 64 64
61 62 62 62 61 61 61 61 60 60 60 60 59 59 59 59 68 78 72 67 68 67 83 83 80 83 81 82 83 78 73 70 77 77 75 78 76 76 76 75 71 60 62 62 63
61 61 61 61 61 61 60 60 60 60 60 59 59 59 59 62 73 83 66 66 67 70 88 88 86 83 79 82 81 79 71 78 79 78 80 72 74 75 73 57 58 62 59 61 63
60 60 60 61 61 60 60 59 59 60 60 59 60 60 60 72 67 85 68 66 67 82 86 84 82 77 76 75 81 73 78 79 80 80 77 74 74 68 74 66 67 65 63 64 64
59 59 59 60 60 60 59 59 59 59 59 59 60 59 67 72 78 84 67 68 81 83 83 82 79 79 75 77 78 75 77 80 81 79 77 77 75 74 69 70 70 65 64 66 67
59 59 59 59 59 59 59 59 58 58 59 59 59 57 69 64 88 87 85 81 86 85 84 85 82 83 77 77 76 78 78 79 79 78 78 72 73 74 71 75 68 70 65 61 65
59 59 59 58 58 58 58 58 58 58 58 59 59 66 65 70 88 89 86 86 89 87 83 86 85 80 81 76 81 79 73 77 78 78 76 73 59 68 73 74 69 67 70 68 63
59 58 58 58 57 57 57 57 57 58 58 58 59 67 64 86 90 86 88 86 88 89 85 87 86 81 78 82 78 74 75 63 73 77 78 66 49 71 76 75 72 73 72 73 73
59 58 58 58 56 56 56 57 57 58 59 58 63 65 67 73 77 86 88 84 85 86 85 86 83 78 79 71 70 73 64 60 66 78 77 67 48 73 77 76 73 75 76 76 75
58 58 58 58 57 56 56 56 61 57 61 70 71 62 72 74 83 86 88 86 81 81 78 77 77 72 74 71 59 63 66 69 64 71 75 70 71 74 75 75 74 76 76 76 76
58 58 58 58 57 56 59 72 66 62 67 68 70 72 75 82 83 82 86 81 82 77 68 75 68 65 70 73 73 71 68 67 70 72 72 71 67 74 75 75 72 75 72 76 76
56 58 58 58 57 56 60 65 69 67 61 74 73 74 79 79 73 79 86 73 72 68 73 71 63 72 77 75 71 69 67 67 71 74 71 72 71 69 75 75 76 76 74 76 77
55 56 57 57 56 58 62 69 76 72 60 68 75 73 75 78 71 76 80 77 71 68 70 66 71 76 71 70 68 68 66 65 66 71 74 72 69 72 77 78 78 79 80 80 79
55 55 56 56 54 66 64 74 77 71 54 63 66 71 76 76 68 83 83 78 74 67 71 70 76 71 69 68 70 63 73 69 67 65 57 72 55 67 74 74 75 77 78 79 80
55 55 55 54 61 61 71 76 73 66 39 68 70 79 76 68 76 74 85 78 69 70 71 66 70 68 66 69 73 67 72 69 69 66 65 64 60 61 73 70 74 77 78 79 81
55 55 55 57 61 60 61 66 67 50 40 62 67 63 63 67 73 78 76 79 79 72 73 71 79 75 73 75 74 75 69 68 68 64 53 60 61 57 67 72 75 79 80 81 81
55 55 54 60 58 66 59 53 46 41 65 61 61 64 63 62 65 70 67 65 63 58 59 67 70 76 77 70 73 71 64 53 49 50 49 65 60 64 68 77 77 78 82 83 83
54 54 54 59 66 65 50 44 38 53 57 66 66 65 58 65 63 66 64 61 68 67 62 58 54 69 74 70 67 66 65 54 37 40 51 62 54 65 78 81 81 82 83 85 85
54 58 56 59 61 61 44 34 43 54 63 61 63 58 59 64 64 64 63 63 67 69 58 59 60 75 75 75 74 66 61 70 58 58 52 58 65 73 77 77 79 79 80 82 84
51 53 55 59 60 54 38 37 50 61 65 66 54 61 56 59 59 61 61 68 67 72 73 66 58 71 72 74 74 69 73 58 59 42 41 55 58 61 68 72 76 77 79 81 83
47 41 58 61 55 43 32 41 53 63 66 61 59 59 61 60 61 61 62 68 72 71 73 68 64 64 68 64 64 64 62 64 63 59 46 46 55 71 71 74 74 77 79 81 81
44 35 58 56 38 39 36 47 55 61 66 64 62 62 61 63 60 60 61 67 73 73 64 69 65 56 61 71 75 70 66 65 54 52 56 53 56 75 75 77 77 77 79 81 82
39 41 55 55 33 35 46 48 54 56 59 59 59 62 64 62 57 62 65 72 70 69 67 68 61 50 57 65 69 64 67 67 63 63 49 45 54 76 76 76 78 78 80 81 80
39 33 40 44 49 45 44 46 47 57 60 62 60 63 61 58 63 59 61 67 70 70 61 64 63 57 51 58 65 59 64 67 64 54 54 56 61 69 73 74 77 79 80 81 81
39 38 43 33 38 47 50 49 47 49 59 62 58 57 56 55 58 58 61 63 63 61 65 66 56 59 63 67 67 65 64 65 62 63 54 60 63 70 74 76 77 78 78 77 77
34 40 46 45 46 46 46 47 49 53 56 54 55 58 54 51 57 50 58 58 59 65 63 66 56 60 58 65 66 62 66 67 66 66 65 66 65 77 79 79 77 77 75 75 75
42 55 52 46 42 44 46 48 49 55 59 61 60 59 56 58 62 58 58 56 59 59 58 60 56 53 49 61 61 51 61 64 66 69 67 60 68 76 75 76 76 77 75 74 72

GFSSW_sfc_temp_036.txt.gz
Temp
61 62 62 61 61 61 61 61 61 60 61 61 60 60 60 60 60 76 72 78 79 67 66 84 84 84 85 81 85 85 67 64 67 69 70 80 75 62 66 60 63 65 61 61 63
61 61 61 61 61 61 61 61 60 60 60 60 60 60 60 59 66 72 74 69 68 68 80 82 80 82 78 80 82 76 67 68 77 76 73 78 75 75 65 63 58 62 62 64 65
61 61 61 61 61 60 60 60 60 60 60 60 60 60 59 61 69 78 67 68 68 70 82 86 86 83 76 81 79 77 68 76 78 78 79 76 74 76 66 53 56 56 60 61 62
61 60 60 60 60 60 59 59 59 60 60 60 60 60 59 68 64 80 67 68 68 81 83 84 81 76 73 74 81 72 78 79 79 80 78 75 77 71 67 62 64 64 64 65 63
61 60 60 60 60 59 58 58 59 59 59 60 60 60 64 70 74 78 67 69 79 80 80 81 78 77 72 77 79 74 77 80 81 80 79 79 73 72 67 65 67 66 68 66 62
60 60 60 59 59 59 58 58 58 58 59 59 59 58 66 59 89 83 82 79 84 81 82 85 81 82 76 76 75 78 77 78 80 79 79 73 69 67 69 70 66 67 64 63 63
59 60 59 60 59 58 58 57 57 57 58 59 59 64 62 63 88 91 87 83 86 86 82 86 86 79 79 73 81 79 71 76 78 78 75 73 63 59 71 71 67 67 65 66 66
59 59 59 59 58 57 57 57 57 57 58 59 59 63 56 81 86 85 89 84 89 90 87 88 86 79 76 79 76 72 72 64 74 76 71 65 48 64 67 69 67 67 66 66 66
58 58 58 58 59 57 56 56 57 58 59 60 61 62 60 77 76 84 88 81 85 86 86 88 82 75 76 69 65 69 61 64 66 76 70 63 51 63 68 73 69 68 70 69 67
57 57 58 57 57 57 56 56 60 60 63 69 69 62 68 70 82 83 87 86 81 80 77 76 74 68 70 66 54 61 61 65 64 72 73 60 54 57 61 74 72 73 72 72 70
57 57 57 57 57 57 58 64 65 59 64 64 67 67 75 81 86 81 85 82 82 76 65 72 64 60 66 70 71 70 66 63 69 73 70 68 58 57 59 73 72 73 72 73 73
57 56 56 57 57 57 58 56 70 69 57 71 71 72 77 81 72 78 86 73 71 65 70 67 60 70 74 73 71 69 65 64 70 73 71 70 64 59 58 71 73 73 70 72 73
56 55 56 56 57 56 57 60 74 75 57 64 72 72 74 77 71 74 80 74 69 65 67 62 68 75 72 69 67 67 64 65 65 68 73 69 66 61 67 75 75 76 75 75 74
55 55 55 55 52 62 60 72 73 73 49 59 68 73 76 76 67 80 83 75 70 64 67 67 73 72 69 66 69 61 72 69 66 64 56 69 52 64 70 71 73 75 75 75 76
55 55 55 54 58 61 65 67 75 66 34 67 71 83 78 69 73 71 82 76 65 67 68 63 67 67 65 67 72 66 72 68 68 64 62 62 57 64 71 68 71 74 75 77 77
55 55 55 55 56 61 68 64 66 45 35 60 68 65 66 68 69 75 73 79 76 68 71 69 77 73 71 73 74 75 69 67 66 63 50 58 59 60 64 68 72 76 76 77 78
55 55 55 61 54 65 60 55 42 38 62 59 62 65 63 62 63 66 65 63 60 54 57 66 68 74 75 67 73 71 63 50 47 47 46 62 59 61 69 69 67 72 71 67 78
54 54 55 60 63 62 52 42 36 50 52 69 68 66 59 63 62 62 63 59 66 65 59 55 52 67 74 69 65 65 63 50 39 40 47 54 52 63 74 76 80 80 74 72 78
54 53 53 57 60 56 45 31 40 50 61 58 62 58 59 63 63 61 61 61 65 66 56 55 56 72 73 74 71 64 57 67 55 53 44 43 59 72 75 75 78 78 80 78 80
49 48 51 58 56 52 38 34 44 57 61 62 53 59 54 59 59 59 59 66 64 69 71 64 55 68 72 74 72 68 72 54 57 42 38 51 55 58 64 71 75 75 77 79 81
47 41 53 57 54 42 33 38 48 57 61 56 54 54 57 57 60 59 59 66 69 69 71 67 61 60 68 64 62 64 60 61 60 56 43 42 51 66 65 73 73 75 77 78 78
44 35 54 57 37 38 35 44 51 54 59 58 60 58 57 59 57 58 59 64 72 71 63 67 61 52 59 70 73 69 64 63 50 50 54 48 52 72 70 73 75 76 78 79 79
40 40 52 53 31 33 41 45 50 51 54 55 56 60 63 56 46 52 58 69 71 69 63 66 57 47 53 62 68 63 66 65 63 59 51 42 50 73 75 74 76 75 77 77 78
40 33 41 43 50 42 39 42 44 54 53 57 57 62 59 55 55 48 48 65 68 70 58 61 60 54 45 55 61 58 63 66 61 50 50 51 56 62 68 68 73 75 77 78 77
39 35 41 33 36 45 46 47 43 45 53 56 55 56 56 49 48 45 48 52 61 62 66 62 54 57 60 64 64 63 62 63 61 58 52 55 56 65 70 69 68 75 77 78 77
32 37 46 46 43 42 43 44 45 49 51 48 50 55 58 53 52 47 49 50 54 61 62 64 53 56 52 61 63 58 63 65 64 64 63 64 63 74 76 73 69 70 76 75 76
40 47 48 44 42 39 41 45 47 52 55 57 55 55 54 59 62 55 53 50 49 53 54 57 54 52 46 57 56 47 58 63 65 68 65 57 66 74 73 74 75 74 76 74 74

GFSSW_sfc_temp_039.txt.gz
Temp
61 61 61 61 60 60 60 60 60 60 60 60 60 60 60 60 59 65 62 70 69 67 66 73 72 72 71 66 67 65 51 48 58 62 60 69 64 61 65 58 63 61 62 61 62
61 61 61 60 60 60 60 60 59 59 60 60 60 60 60 59 58 62 71 68 67 67 72 71 70 71 63 64 64 59 49 55 68 64 63 67 68 62 63 61 59 57 60 62 62
61 61 61 60 60 59 59 58 58 59 60 60 60 60 59 59 59 71 67 68 68 68 72 73 75 73 64 64 64 63 55 65 70 70 67 63 65 67 58 55 58 57 57 60 60
61 60 60 60 60 59 58 58 58 59 59 59 60 60 59 58 57 70 68 68 68 72 72 72 72 65 61 60 67 58 68 70 69 69 67 64 66 59 59 57 61 60 61 61 59
61 60 60 60 60 59 58 58 58 58 58 59 60 60 56 58 63 72 68 68 71 74 70 70 68 67 62 66 67 64 67 71 72 73 69 70 63 59 56 60 62 62 64 61 59
59 60 60 60 60 59 58 58 57 57 58 58 59 58 54 50 76 76 73 71 73 70 72 73 71 74 68 67 63 68 69 68 71 70 69 65 61 62 60 61 60 64 60 59 58
58 58 59 60 60 59 58 58 57 57 57 58 59 59 53 54 73 73 78 74 74 74 71 76 77 68 68 63 71 70 62 66 68 69 65 67 58 55 63 63 61 61 60 59 58
58 58 58 58 58 58 58 57 57 57 58 58 59 55 49 71 70 73 75 74 78 78 78 79 77 70 65 69 67 61 60 52 65 65 63 64 52 58 60 64 58 59 61 60 59
58 57 57 57 57 57 57 57 57 58 58 58 54 52 50 73 67 73 76 75 77 78 77 84 73 64 65 56 52 55 48 52 59 70 62 58 51 60 62 63 60 60 60 59 60
57 57 57 56 56 56 56 57 58 58 59 63 62 50 60 65 74 76 77 78 74 73 70 67 62 55 54 50 42 48 50 49 53 64 61 53 51 59 62 59 61 60 59 61 61
57 57 56 56 56 56 54 54 53 50 55 54 56 58 67 74 79 73 77 74 73 67 57 61 52 47 52 58 61 61 58 55 58 67 63 56 51 56 61 58 61 61 62 62 61
56 56 56 56 56 56 52 47 54 56 47 63 63 64 69 72 64 71 77 65 63 57 61 56 51 60 65 64 63 62 57 55 62 68 63 55 51 56 58 58 62 63 62 62 62
56 56 56 55 55 51 49 52 61 59 47 56 63 63 66 70 63 65 71 68 61 58 58 53 58 67 64 62 61 61 57 56 57 62 67 60 48 52 59 61 65 66 67 65 62
56 55 55 54 49 50 49 61 61 58 39 49 59 64 68 69 61 74 74 69 62 58 59 58 66 64 63 61 63 55 65 64 61 54 46 61 41 50 55 60 63 65 65 63 62
55 55 54 55 47 47 58 60 62 55 22 57 62 76 71 63 65 65 75 67 59 60 59 56 58 59 59 63 65 59 65 61 59 52 49 54 46 52 59 56 61 63 65 65 65
55 55 54 51 48 51 58 58 53 37 26 52 63 61 61 63 63 66 66 69 68 62 62 61 69 65 63 68 67 68 63 60 57 51 38 50 48 47 54 59 64 66 67 68 67
54 55 54 55 45 56 56 50 35 27 55 52 56 61 58 56 59 61 57 56 52 48 49 58 60 67 69 60 65 61 54 41 37 35 34 53 48 50 59 63 67 67 68 68 70
54 54 54 54 53 56 51 40 27 43 45 60 59 59 53 57 56 58 56 50 58 56 49 47 44 61 67 63 58 58 56 39 33 30 40 50 44 52 64 64 69 73 72 71 68
54 49 49 52 52 52 43 30 34 41 52 51 54 49 50 57 56 55 53 52 57 59 49 47 49 65 68 68 66 58 50 59 46 46 38 41 52 60 65 65 65 66 66 64 65
48 46 47 54 54 48 38 34 39 49 53 52 43 50 46 53 53 51 52 58 57 63 64 55 47 61 66 68 66 61 63 48 46 33 31 41 44 49 59 62 66 65 64 66 67
47 40 50 55 50 40 32 34 42 51 54 47 45 46 48 48 51 52 50 59 61 62 65 60 52 52 62 58 57 55 54 54 53 46 35 31 40 57 59 62 63 65 66 66 67
45 35 51 53 36 37 33 39 46 49 52 50 50 48 46 49 48 50 48 54 60 60 57 61 52 45 52 63 67 61 58 55 39 41 45 38 43 62 62 62 67 68 68 66 67
41 40 49 50 31 31 39 40 43 43 46 48 47 50 51 47 43 48 50 57 56 52 54 59 52 42 47 56 61 58 59 60 55 47 42 34 41 60 62 63 68 65 67 67 68
40 32 40 41 43 37 35 37 36 47 44 48 48 50 48 45 51 46 48 55 54 53 52 54 55 49 41 48 54 50 56 58 55 39 41 40 48 56 61 60 62 62 61 62 67
39 33 40 32 34 38 40 40 37 37 47 48 44 45 45 40 44 45 48 50 55 52 52 52 47 53 55 57 58 57 57 56 54 54 46 49 51 57 61 65 68 65 68 69 69
32 34 40 40 40 37 40 36 37 42 43 43 42 46 47 42 45 43 47 46 46 48 47 52 45 49 46 57 58 54 56 57 57 56 56 57 54 64 68 65 61 65 66 66 67
43 41 43 40 38 35 36 38 39 43 46 49 48 45 43 46 50 50 50 51 49 45 40 43 41 45 41 48 49 40 51 56 57 61 59 49 56 67 65 65 66 65 67 66 67

GFSSW_sfc_temp_045.txt.gz
Temp
61 61 61 61 59 59 59 59 58 58 59 59 59 59 59 59 58 58 57 66 61 66 67 66 65 62 60 57 58 55 46 40 46 49 55 60 56 55 59 57 59 59 58 59 62
61 62 61 61 59 59 59 59 58 58 58 58 58 59 58 58 55 54 65 67 66 66 68 66 62 63 56 54 56 52 43 48 56 56 55 59 59 58 56 56 55 55 60 61 62
60 60 61 61 60 60 59 58 58 58 58 58 58 59 58 58 54 63 68 67 66 66 67 68 68 65 54 55 56 52 50 56 63 63 61 56 55 60 55 52 55 54 55 59 59
59 59 59 60 60 60 59 58 58 58 58 58 59 59 59 53 53 65 68 67 67 67 67 66 63 57 54 54 58 51 60 59 61 63 60 56 57 55 55 55 58 57 58 57 57
58 58 59 59 59 59 59 58 58 58 58 58 59 59 56 49 54 67 68 67 66 67 65 64 62 60 56 58 58 56 59 63 63 64 58 62 57 56 52 55 57 57 59 57 57
58 58 58 58 58 58 58 57 58 58 58 58 59 58 52 43 66 68 65 64 67 64 64 65 63 64 60 59 57 61 60 60 62 61 60 57 54 54 56 56 55 57 56 58 58
58 57 57 58 57 57 57 57 57 57 57 58 59 56 50 49 62 63 65 63 65 67 64 66 66 61 61 58 63 61 56 58 60 59 58 57 49 50 56 55 54 55 58 59 59
58 57 57 56 56 56 56 56 56 57 57 58 58 54 46 63 60 61 60 62 67 67 67 69 67 63 60 62 60 55 52 47 55 59 57 54 48 53 56 54 53 53 54 55 56
57 56 56 56 56 55 56 56 56 57 58 58 53 52 45 64 60 64 65 63 67 68 66 74 66 59 58 51 47 47 42 46 53 59 56 54 50 53 55 56 52 52 52 53 53
57 57 56 55 55 55 55 55 56 56 56 58 58 47 55 59 66 69 64 67 65 64 62 61 57 52 48 46 38 42 43 40 45 53 54 49 52 52 54 55 54 51 51 52 52
57 57 56 56 55 55 53 50 47 46 50 48 51 52 58 66 70 65 68 63 64 60 51 55 48 44 48 51 51 50 47 45 50 57 54 52 51 52 52 53 51 51 50 52 52
56 56 56 56 55 54 50 43 47 48 40 52 52 54 59 62 54 63 67 59 56 49 53 50 47 52 55 54 51 49 47 46 52 58 55 51 49 51 51 54 55 54 52 52 53
56 56 56 55 54 50 46 49 59 57 40 47 53 53 58 59 53 56 62 59 54 50 51 47 52 58 55 52 50 49 46 48 49 54 51 49 47 48 54 54 56 57 57 56 55
55 55 54 54 49 47 45 55 57 56 33 43 48 54 59 59 50 65 66 61 55 52 51 49 59 55 52 52 52 45 54 54 52 47 42 52 38 47 50 51 55 57 57 56 57
55 55 54 54 45 44 53 56 56 51 22 51 54 64 60 54 57 58 67 59 52 53 52 48 51 51 51 53 55 50 56 53 52 47 44 45 40 46 49 49 53 56 57 58 58
54 54 54 50 45 47 51 52 51 35 24 45 56 53 51 55 56 60 57 62 61 53 52 54 58 56 54 58 57 59 54 52 48 45 36 45 42 40 45 53 55 58 59 59 59
54 54 53 51 43 48 49 45 35 26 46 44 47 53 51 49 52 55 52 51 49 42 43 50 53 56 58 51 55 53 46 35 34 32 34 47 41 44 53 56 58 58 60 60 60
54 53 53 51 49 49 45 39 28 38 38 49 49 50 48 51 51 51 49 45 50 49 43 42 38 52 57 54 50 49 48 35 30 29 36 44 38 47 57 60 61 62 64 61 60
53 49 48 47 47 47 37 29 33 39 45 42 46 43 45 50 50 49 46 45 50 50 43 39 41 55 57 59 56 49 43 51 40 37 33 38 44 53 57 58 58 59 59 58 59
47 46 47 48 50 43 33 32 39 46 47 45 36 42 38 42 45 45 44 49 49 52 56 47 40 52 56 58 56 54 55 42 38 32 29 36 38 42 51 57 58 57 58 59 62
45 41 48 51 49 39 28 33 40 47 46 40 39 39 41 40 42 43 45 49 52 52 53 50 45 45 52 48 48 48 45 46 46 38 35 33 36 49 54 56 57 58 60 59 59
43 34 47 51 35 36 31 38 45 43 47 45 43 43 40 43 40 42 42 48 53 52 44 48 43 37 46 56 57 51 49 48 40 38 36 33 43 56 55 56 56 58 61 60 60
37 38 47 48 30 31 38 37 41 40 41 41 41 42 45 41 37 42 45 51 53 50 47 51 40 32 39 48 50 47 50 51 47 41 41 34 41 58 58 56 58 58 59 61 59
37 31 38 41 39 37 34 35 35 43 40 42 40 42 40 38 41 38 42 49 53 50 50 49 42 39 33 35 42 40 47 52 50 37 37 42 45 52 55 55 57 58 59 60 61
37 32 39 32 34 37 38 38 35 35 42 42 39 38 36 31 35 34 42 46 51 49 50 47 37 38 39 43 46 44 45 48 48 49 42 45 45 52 55 57 58 60 59 61 60
32 35 38 38 39 35 36 35 36 38 40 37 35 39 39 35 37 35 39 39 41 47 45 46 37 37 34 45 44 41 45 46 49 50 46 48 46 56 59 57 57 58 60 60 62
40 42 40 37 36 34 34 36 36 41 41 43 41 38 36 40 43 44 44 45 45 43 39 40 36 34 29 36 40 34 40 46 50 54 51 45 52 58 56 57 58 61 60 61 62

GFSSW_sfc_temp_048.txt.gz
Temp
60 61 61 61 60 59 59 59 58 58 59 59 59 59 59 58 58 55 53 65 62 66 67 64 62 60 59 56 55 52 44 40 43 46 52 56 55 54 57 55 57 57 58 60 63
60 60 60 60 60 59 59 59 58 58 58 59 58 58 58 58 54 49 63 66 66 66 66 64 59 60 55 53 53 50 43 46 54 55 56 57 58 58 55 55 54 52 60 61 62
59 59 59 60 59 59 59 58 58 59 59 58 58 59 58 58 50 60 67 66 66 67 67 66 65 60 53 53 53 49 48 54 58 60 58 56 54 57 52 52 55 53 55 59 60
58 58 59 59 59 59 58 57 58 58 58 58 59 59 58 54 50 62 67 67 66 65 66 63 60 55 52 51 56 49 57 57 59 58 55 53 55 53 54 54 56 56 57 58 58
58 58 58 59 59 58 57 57 57 58 58 58 59 59 54 47 52 65 68 66 64 66 64 61 58 57 53 55 57 53 56 59 61 60 57 58 55 56 53 54 56 56 57 55 58
57 57 57 58 58 58 57 57 57 57 57 58 58 58 50 42 63 63 62 62 63 62 63 63 61 62 57 56 55 58 58 58 58 59 57 56 52 52 55 55 54 55 58 55 57
57 57 57 57 57 57 57 57 56 56 57 57 58 55 48 48 60 60 61 60 62 63 62 63 63 58 57 54 61 58 53 56 57 55 55 56 51 50 55 54 53 53 58 59 59
58 57 56 56 56 56 56 56 56 56 57 57 58 52 44 62 57 59 57 60 64 64 63 65 63 60 57 59 57 51 50 45 53 55 55 55 47 51 53 53 52 54 57 58 58
57 57 56 56 55 55 55 55 55 57 57 57 51 49 45 64 57 62 62 60 63 64 63 72 63 56 56 49 45 45 40 43 50 56 53 50 48 49 53 54 52 51 53 55 57
56 56 56 56 55 55 54 55 56 55 56 56 57 45 54 58 63 65 60 63 61 60 59 58 54 48 46 45 37 40 39 39 43 48 51 48 49 51 52 52 52 51 50 52 53
56 56 56 55 55 55 52 48 45 44 47 46 48 49 57 64 67 62 63 60 58 57 49 52 46 44 46 49 49 48 44 42 46 52 51 50 49 55 50 51 50 50 50 50 51
55 55 55 55 55 54 48 44 48 49 39 50 49 50 55 59 51 59 65 56 53 48 52 48 46 51 54 51 50 47 44 43 49 53 51 47 49 49 49 50 53 52 50 50 51
55 55 55 54 54 49 44 48 57 55 40 46 51 50 55 56 50 54 60 57 52 48 49 46 49 55 53 49 47 46 43 44 46 49 50 46 47 48 52 51 53 54 54 53 52
54 54 54 54 47 46 44 54 56 54 34 40 45 51 57 55 48 63 64 59 52 49 49 48 55 51 49 49 50 42 50 51 48 44 38 47 36 47 49 50 51 54 53 54 53
54 54 54 54 44 42 49 54 55 50 22 49 50 61 58 52 54 56 64 57 49 50 50 46 49 49 47 49 53 48 52 50 49 43 40 42 38 45 48 49 51 53 55 56 55
54 54 54 49 48 48 49 49 49 33 22 41 52 49 48 51 51 56 54 59 58 51 49 51 55 53 54 55 55 56 51 48 45 41 32 42 40 40 44 52 54 56 56 57 56
53 53 52 52 46 46 47 45 32 25 44 42 44 51 49 46 48 51 48 46 46 41 40 47 50 54 57 50 51 50 44 34 32 30 31 43 38 45 52 54 57 58 57 57 57
53 53 51 51 49 48 44 37 26 36 36 46 46 48 45 49 48 51 45 41 48 47 41 39 36 49 55 52 48 46 44 33 30 28 34 41 36 46 55 58 58 59 59 57 55
52 45 45 48 50 48 38 27 30 36 42 40 43 40 42 47 48 48 46 44 49 51 44 39 41 53 55 56 56 47 40 49 38 35 31 36 43 52 55 55 56 58 58 56 54
44 44 44 50 52 45 33 30 36 44 43 41 34 39 35 40 41 42 44 47 47 52 52 46 39 50 54 55 53 51 52 39 36 31 29 34 35 40 48 54 57 56 57 57 55
43 39 48 51 49 39 29 30 37 45 45 39 37 36 38 38 40 40 42 47 49 49 50 48 43 43 50 47 46 46 43 43 43 36 31 29 35 47 53 54 55 58 58 56 55
41 33 47 50 36 34 31 37 43 42 46 42 42 40 37 39 38 40 40 46 51 50 44 46 40 34 43 53 54 48 45 45 35 36 34 30 39 54 53 55 54 56 59 58 57
37 37 47 47 31 31 35 37 39 39 40 40 39 40 42 38 35 40 44 50 51 49 46 47 40 31 37 44 46 42 46 46 44 39 35 29 36 56 54 54 57 56 58 59 58
36 30 38 41 40 37 33 33 34 40 39 40 39 41 39 36 40 37 39 47 51 51 49 49 41 37 32 37 40 37 42 44 42 32 35 39 41 50 55 54 56 57 57 59 58
36 32 38 31 33 36 37 37 33 35 41 40 36 36 35 31 33 34 41 43 47 49 48 46 36 38 42 43 42 42 42 43 40 40 35 41 43 49 53 56 58 58 58 58 60
32 33 38 36 39 35 35 33 35 37 39 36 33 37 37 33 35 33 38 37 38 44 42 44 34 36 33 42 42 39 42 43 44 44 42 44 45 53 57 55 54 57 57 58 59
40 41 39 36 35 33 34 35 35 40 41 43 39 37 34 38 40 42 41 41 40 38 37 38 36 33 30 36 38 31 38 43 44 46 45 38 46 55 55 55 55 57 57 57 59

GFSSW_sfc_temp_051.txt.gz
Temp
60 60 60 60 59 59 59 59 59 59 59 59 59 59 59 59 58 57 55 67 63 66 67 68 70 69 70 67 67 65 59 54 56 56 62 66 64 64 66 64 62 63 62 64 66
59 60 60 60 59 59 59 58 58 59 59 59 59 59 59 58 55 54 63 65 65 66 69 69 65 68 66 65 65 64 57 58 63 64 65 68 65 67 62 60 60 59 64 65 64
59 59 59 59 59 59 58 58 57 58 59 59 59 59 58 58 53 63 66 66 66 67 72 72 69 69 64 64 63 61 59 61 64 67 68 65 63 66 63 61 62 60 61 63 62
58 58 58 59 59 59 58 57 57 58 58 58 59 59 58 56 53 66 67 67 67 68 72 68 67 64 62 60 64 59 63 64 67 67 65 63 64 62 62 63 64 64 64 63 62
58 57 58 58 59 58 57 57 57 57 57 58 58 59 55 50 55 67 66 67 67 68 69 67 65 63 61 62 62 59 64 64 67 66 64 64 63 63 61 62 63 62 61 59 61
57 57 57 57 58 57 57 57 56 57 57 57 58 58 52 43 68 66 64 65 66 67 67 68 67 68 64 64 62 65 64 66 66 67 65 62 61 61 63 62 61 61 60 59 61
57 57 57 57 57 57 57 56 56 56 57 57 58 56 48 50 64 64 62 64 67 67 66 68 70 67 66 62 66 65 60 64 64 67 64 64 59 58 63 62 60 58 60 60 60
57 57 56 56 56 56 56 55 55 56 57 57 57 53 45 62 63 61 62 62 66 68 66 70 71 67 65 67 63 61 58 55 62 62 60 64 58 63 62 61 60 59 60 61 60
56 56 56 55 55 55 55 55 55 57 58 57 52 51 46 64 58 64 64 62 64 67 68 71 68 63 63 58 55 53 52 51 57 63 59 61 58 61 59 60 60 59 60 60 60
56 56 56 55 55 55 54 55 56 56 56 56 56 47 53 57 65 66 63 64 63 63 62 62 60 57 54 55 46 49 49 51 53 60 59 57 58 62 59 59 60 61 59 58 58
55 55 55 55 55 54 53 50 48 47 49 46 49 49 54 60 66 64 64 62 63 60 53 57 53 49 53 57 56 55 52 52 55 60 58 57 58 64 61 57 58 60 60 59 58
55 55 55 55 55 54 50 47 48 48 38 50 49 50 56 58 49 59 66 58 55 52 54 52 48 56 57 56 55 54 52 52 56 57 57 59 59 64 59 59 59 61 61 61 60
54 54 54 54 54 50 47 48 56 54 40 46 52 49 51 55 49 53 62 60 54 50 52 50 53 57 56 53 51 52 51 50 52 55 58 56 56 61 62 59 60 61 64 64 62
53 53 53 53 49 47 46 53 55 53 35 41 45 50 56 56 48 61 65 61 55 51 52 52 58 54 53 52 54 47 54 54 52 51 48 57 45 56 62 61 60 62 61 63 62
53 53 53 54 48 47 50 53 53 49 25 49 49 62 58 52 55 56 64 60 52 52 53 49 50 52 50 53 56 53 55 54 54 51 49 50 48 54 57 59 64 67 63 63 63
53 53 53 50 50 51 51 50 49 34 25 42 52 50 48 52 53 57 56 62 61 54 54 54 58 57 57 56 58 59 56 53 51 49 41 49 50 51 58 62 65 68 68 65 64
53 53 51 53 46 50 50 45 33 26 45 41 43 49 49 47 48 51 49 49 48 43 43 50 52 58 59 53 56 56 51 41 39 39 40 48 46 53 61 64 65 68 71 67 64
52 52 50 51 51 51 47 37 25 37 38 46 45 46 45 49 49 49 46 44 52 50 46 43 40 53 58 55 51 51 51 43 35 35 43 46 43 54 63 68 66 67 68 67 65
51 45 45 47 51 49 40 27 31 37 42 39 43 40 42 46 47 48 46 45 50 52 45 42 44 55 57 58 59 50 46 55 44 42 41 46 51 59 64 65 65 66 67 70 68
43 42 43 48 51 45 34 31 35 44 44 42 35 40 36 40 42 43 44 50 48 53 55 49 43 53 56 59 58 56 57 45 44 36 34 41 44 50 57 62 67 65 68 70 68
42 37 46 49 49 39 29 32 37 45 45 39 37 36 38 38 41 41 44 50 50 50 53 53 48 46 55 52 50 51 50 50 49 44 39 36 43 55 60 62 64 67 68 68 69
41 31 46 49 35 35 32 34 43 42 46 44 42 41 39 40 39 41 42 45 51 51 46 50 45 40 46 55 56 54 51 50 42 41 40 39 44 60 59 61 62 66 66 67 68
37 37 46 46 29 31 35 35 40 40 41 41 39 41 43 40 36 41 43 51 51 51 47 49 42 37 41 47 50 45 47 47 46 43 40 37 43 61 61 62 64 63 68 68 68
36 30 37 39 40 35 33 34 34 41 40 41 39 42 40 38 41 39 41 48 49 51 48 50 45 40 36 39 44 41 45 47 46 39 40 42 46 55 58 58 62 66 67 68 68
37 32 38 30 32 34 35 35 33 34 41 43 37 38 37 33 35 37 42 43 48 49 50 48 41 43 46 46 45 44 45 46 43 45 40 46 47 53 57 60 62 66 66 66 67
32 33 37 35 37 33 34 33 34 37 39 36 36 39 39 35 37 36 39 41 40 45 44 45 38 40 37 44 44 41 44 46 46 47 47 47 46 58 61 62 59 61 64 64 66
40 41 37 35 35 32 34 35 35 40 41 44 41 37 35 39 43 44 45 44 43 40 39 39 38 36 34 38 39 35 41 44 47 51 50 44 53 56 55 58 60 62 63 64 65

GFSSW_sfc_temp_054.txt.gz
Temp
60 60 60 60 60 59 59 59 58 58 59 59 59 59 60 59 59 72 67 73 72 66 67 79 78 81 83 80 80 80 69 66 69 68 72 76 74 80 78 76 73 75 75 75 74
60 60 60 60 59 59 59 58 58 58 59 59 59 59 59 59 64 69 73 67 66 66 78 76 75 78 76 77 77 74 69 70 76 76 74 77 76 78 74 75 73 73 74 73 73
59 59 59 59 59 59 58 58 58 58 58 58 59 59 58 61 65 73 67 66 65 68 82 83 82 78 74 77 76 74 69 76 74 77 78 76 76 78 75 72 76 73 73 72 72
58 58 58 59 59 59 58 57 58 58 58 58 58 59 58 64 57 75 67 67 67 77 78 78 77 72 71 69 77 68 74 76 77 77 76 74 78 75 76 76 75 75 75 73 72
58 58 58 58 58 58 57 57 57 57 57 58 58 59 60 60 61 76 69 71 77 76 76 75 73 73 70 73 74 69 75 76 78 77 76 77 74 75 76 77 75 73 72 71 71
58 57 58 58 58 58 57 57 56 56 57 57 58 58 56 50 73 75 72 75 76 76 76 76 75 78 73 72 71 74 75 76 77 76 77 71 76 70 77 77 73 71 69 69 67
57 57 57 57 57 57 57 56 56 56 56 57 58 60 52 54 73 73 71 70 75 76 74 78 79 73 75 70 76 75 68 72 74 76 75 76 71 70 79 75 72 72 71 69 69
57 56 56 56 56 56 56 56 56 56 57 57 58 57 50 68 72 67 71 71 72 76 74 79 79 74 72 76 71 68 69 63 74 75 74 72 63 76 76 73 73 73 71 70 70
56 56 56 55 55 55 55 55 56 57 58 58 57 55 52 67 64 71 71 65 71 73 74 76 75 71 72 65 64 65 60 62 68 74 72 69 66 75 74 72 74 73 73 72 72
56 56 55 55 55 55 54 55 58 57 62 63 62 50 59 60 68 68 69 68 68 69 67 68 69 65 66 64 54 59 60 65 64 70 70 69 68 75 76 73 71 75 74 73 72
55 55 55 55 55 54 58 65 60 56 56 53 56 55 59 67 70 68 67 65 69 67 59 65 60 56 63 66 67 66 63 63 68 70 66 67 69 74 76 75 72 74 74 73 73
55 55 55 54 54 54 61 55 50 51 39 55 56 56 61 65 54 64 71 61 62 57 63 59 54 65 68 68 64 63 60 62 67 67 66 68 68 75 75 75 76 75 75 74 74
54 54 54 54 54 57 57 54 60 59 43 51 57 55 57 60 54 58 65 63 60 58 60 56 61 67 63 61 59 61 59 60 61 64 68 66 64 70 76 74 75 76 78 78 75
54 53 53 53 53 58 57 61 63 58 37 49 53 57 58 59 51 63 68 66 60 56 57 58 65 60 60 59 62 56 65 62 61 59 55 66 53 68 72 74 73 76 75 76 77
53 53 53 53 55 55 58 62 62 53 33 53 55 67 61 54 57 57 69 64 56 58 58 55 56 58 57 60 65 60 65 62 62 59 59 60 56 64 71 68 74 78 78 77 78
53 53 53 57 55 57 62 60 57 41 33 46 56 54 53 56 55 59 57 66 66 58 61 61 65 63 63 65 65 66 61 61 60 58 47 57 57 60 67 70 74 79 81 80 78
53 52 53 58 53 60 57 56 40 36 51 45 46 52 52 52 53 52 51 48 51 44 48 57 57 62 63 60 64 63 56 48 46 46 45 60 56 60 70 74 76 77 81 79 79
52 51 55 59 62 58 52 45 31 42 43 51 49 51 49 53 53 53 49 45 56 54 50 47 44 56 62 60 57 57 58 50 39 42 50 57 51 61 73 76 78 80 80 79 78
51 55 53 58 59 54 42 33 40 43 47 45 49 45 46 52 52 52 51 49 54 56 47 47 48 61 62 62 63 57 52 62 52 51 49 55 60 68 73 74 76 78 79 80 81
47 46 51 59 58 50 36 34 42 49 48 47 40 44 40 45 48 50 48 53 51 59 61 55 46 58 60 64 64 61 65 50 52 40 39 51 54 58 64 69 74 76 77 80 83
45 42 56 59 53 42 32 39 45 52 51 44 42 41 43 43 46 47 47 52 54 55 58 58 52 51 58 55 55 56 55 56 58 54 45 44 53 67 67 67 68 74 77 80 80
45 34 53 54 36 38 33 42 46 47 51 49 48 45 43 45 43 45 44 51 56 57 51 57 52 47 52 59 63 63 58 58 49 47 51 49 54 70 67 68 71 72 75 78 80
41 40 53 50 30 32 39 40 45 46 47 46 45 46 48 44 39 46 49 55 55 54 50 54 51 43 47 53 58 55 56 57 54 53 48 43 52 68 69 68 72 73 76 78 80
40 32 40 43 42 39 38 38 39 47 47 48 47 47 44 43 48 43 46 52 54 54 48 53 51 47 44 48 54 47 51 53 53 46 49 50 54 60 64 66 70 72 75 78 78
38 34 44 31 36 38 40 38 40 38 46 49 45 45 43 37 42 42 47 50 53 52 54 52 42 48 50 50 51 50 51 52 50 51 46 52 53 60 64 66 69 71 72 74 76
33 35 41 42 44 39 39 36 39 40 42 42 42 45 45 40 43 42 45 47 45 51 49 52 45 47 44 50 49 46 51 53 53 53 53 55 55 67 68 70 68 69 70 70 73
41 45 38 40 40 39 39 40 41 44 45 48 46 43 40 44 49 51 50 50 49 46 44 45 45 43 40 45 46 40 48 52 54 59 57 51 60 65 63 64 65 66 67 67 69

GFSSW_sfc_temp_057.txt.gz
Temp
60 60 60 60 60 59 59 59 59 59 59 59 59 59 59 59 59 75 74 78 76 68 67 83 83 84 86 83 87 87 72 69 74 75 77 83 78 87 87 82 83 83 82 83 81
60 60 60 59 59 59 59 59 58 58 59 59 59 59 59 58 65 72 75 67 67 67 76 81 77 82 79 80 83 77 71 73 83 83 79 81 81 83 82 81 80 82 85 81 79
59 59 59 59 59 59 59 58 58 58 58 58 58 59 58 61 68 78 67 67 67 68 79 86 84 81 75 80 80 78 70 80 81 82 84 81 80 85 80 76 81 79 82 81 79
59 59 59 59 59 59 58 57 58 58 58 58 58 59 58 66 59 78 68 68 67 78 79 82 80 76 72 73 81 73 79 81 83 83 81 79 83 80 82 81 84 83 82 81 79
58 58 58 59 59 58 58 57 57 57 57 58 58 58 63 65 68 86 70 75 80 78 78 78 76 75 70 76 79 75 78 82 83 83 81 82 79 79 81 87 85 82 79 80 79
58 57 57 58 58 57 57 57 57 57 57 57 58 57 62 54 82 83 78 79 82 79 78 81 78 80 75 76 76 80 78 79 82 81 81 77 78 80 81 87 82 80 79 79 78
57 57 57 57 57 57 57 56 56 56 57 57 58 62 59 62 82 81 77 75 80 78 75 80 82 77 77 73 80 79 72 76 78 80 78 80 73 75 84 86 81 80 80 79 78
57 56 56 56 56 56 56 56 56 56 57 57 58 64 57 78 82 76 75 72 79 78 78 81 83 76 74 79 76 71 72 65 77 79 80 78 65 79 86 81 80 81 80 78 78
56 56 55 55 55 55 55 55 55 56 58 58 61 62 59 71 69 75 72 69 73 78 75 80 78 69 73 67 65 68 61 65 70 81 78 75 68 80 83 80 79 81 81 79 79
56 56 55 55 55 54 55 54 60 57 61 69 68 55 64 66 72 73 75 72 66 72 68 68 69 63 65 66 55 61 63 67 68 77 75 73 71 78 82 80 79 81 82 81 79
55 55 55 55 55 54 57 70 65 61 65 60 62 61 66 71 75 71 71 68 68 65 59 67 59 56 62 67 69 68 68 67 72 77 72 71 72 77 81 82 80 80 81 81 80
55 55 55 55 54 54 59 60 57 57 46 61 62 61 66 69 57 65 74 62 59 52 62 58 55 64 68 70 68 66 64 65 71 74 70 70 71 77 80 81 82 81 81 81 81
54 54 54 54 54 57 63 61 68 63 50 58 64 61 62 65 57 60 68 65 56 49 52 56 63 66 65 66 65 65 62 64 64 71 71 69 67 72 79 82 82 83 84 85 82
54 54 53 53 52 63 59 68 69 64 44 56 60 63 63 62 53 67 72 66 57 53 53 55 67 62 62 63 66 59 69 67 65 64 57 72 55 69 75 77 79 80 82 83 84
53 53 53 53 57 54 63 68 67 56 37 58 60 71 66 58 61 61 72 66 56 55 59 55 60 60 58 63 67 62 70 68 65 62 61 62 58 66 75 73 77 81 82 83 84
53 53 53 59 56 63 68 65 61 39 37 52 60 58 59 62 59 62 60 66 65 59 61 60 68 65 59 65 69 70 65 65 64 62 50 59 60 62 70 74 77 82 84 85 84
53 53 53 60 53 63 64 59 44 39 57 51 52 57 57 56 57 57 53 52 47 43 48 57 58 66 65 58 67 66 60 50 47 48 46 63 59 62 74 77 78 79 83 85 86
53 52 56 62 65 61 58 50 36 48 50 57 54 57 52 57 56 56 52 49 53 53 50 48 44 59 65 59 58 61 60 50 40 43 51 64 54 64 77 79 80 83 84 84 84
52 56 57 61 63 61 48 37 44 50 54 51 54 51 51 55 55 56 54 51 54 55 46 48 51 65 66 65 63 59 54 64 54 55 50 59 64 73 75 76 78 80 82 83 84
53 47 54 63 63 55 39 38 49 55 54 53 45 50 45 49 51 53 52 55 53 58 63 56 47 62 63 65 65 61 67 53 55 41 39 53 56 58 67 71 75 77 80 82 85
50 39 60 63 59 42 34 42 50 57 56 50 48 47 49 47 49 50 50 55 57 56 60 59 54 53 59 56 55 56 55 58 59 55 44 43 53 71 68 69 70 75 80 80 81
46 33 59 60 36 40 37 47 51 53 57 53 53 50 48 49 47 47 48 53 58 56 50 57 53 47 51 62 66 63 58 57 49 47 54 51 52 72 71 71 72 74 78 81 82
41 42 58 52 34 37 44 45 49 50 52 52 50 53 54 49 43 49 52 58 57 53 48 53 50 42 48 56 61 57 60 62 60 58 46 44 51 72 73 71 72 73 77 80 81
40 33 45 45 46 42 41 41 42 52 52 54 52 54 50 47 51 46 49 55 57 55 49 52 50 48 43 50 58 53 57 60 58 49 50 51 56 65 66 68 71 73 76 77 79
40 37 44 34 41 42 44 42 41 41 51 53 49 50 48 43 46 45 50 53 57 52 54 48 44 49 54 55 55 56 55 56 54 56 50 55 57 64 67 69 72 74 73 73 76
35 37 46 44 46 43 43 38 41 45 47 45 46 50 51 46 47 45 49 48 48 55 52 51 40 45 45 53 52 50 55 57 58 58 57 59 58 70 72 72 70 71 71 70 71
46 47 41 40 43 41 41 44 44 48 48 50 50 48 46 50 52 53 53 49 51 49 48 48 44 39 35 48 49 42 51 54 56 60 59 53 62 68 66 67 68 69 69 69 69